AAR221 KJFK-RKSI

Flight info

Callsign AAR221
Flight time 11h 5m
Altitude 34000
Route GREKI DCT JUDDS DCT CAM DCT BUGSY DCT 49N076W 55N080W 62N090W 65N100W 67N110W 68N120W/N0492F360 69N130W DCT ADREW DCT 69N150W 67N160W DCT IDROD R338 MARCC/N0493F380 R338 NATES R220 NUZAN/N0490F390 R220 NUBDA/N0497F400 R220 NODAN R217 ASTER Y514 SDE Y512 GTC Y142 SAMON Y14 SUGNO Y16 SAPRA Y685 GUKDO GUKDO3C
Aircraft A359/H-SDE2E3GHIJ3J4J5LM1ORWXY/LB1D1

Departure

Time 2026-05-09 02:59
Airport John F. Kennedy International Airport (KJFK)

Arrival

Time 2026-05-09 14:04
Airport Incheon International Airport (RKSI)
Time Latitude Longitude Altitude Speed Heading
2026-05-09 02:21 40.64175 -73.79315 22 ft 0 kts 108°
2026-05-09 02:41 40.64175 -73.79316 22 ft 1 kts 108°
2026-05-09 02:41 40.64179 -73.79334 25 ft 2 kts 108°
2026-05-09 02:41 40.64184 -73.79351 24 ft 2 kts 120°
2026-05-09 02:42 40.64192 -73.79367 25 ft 2 kts 135°
2026-05-09 02:42 40.64203 -73.79379 25 ft 2 kts 149°
2026-05-09 02:42 40.64217 -73.79386 25 ft 2 kts 175°
2026-05-09 02:42 40.64231 -73.79383 25 ft 2 kts 206°
2026-05-09 02:43 40.64244 -73.79375 24 ft 2 kts 206°
2026-05-09 02:43 40.64257 -73.79367 26 ft 2 kts 212°
2026-05-09 02:43 40.64273 -73.79351 24 ft 5 kts 217°
2026-05-09 02:43 40.64288 -73.79337 25 ft 3 kts 224°
2026-05-09 02:44 40.64290 -73.79334 25 ft 0 kts 224°
2026-05-09 02:47 40.64271 -73.79357 25 ft 8 kts 221°
2026-05-09 02:48 40.64248 -73.79386 25 ft 0 kts 225°
2026-05-09 02:50 40.64230 -73.79411 26 ft 8 kts 228°
2026-05-09 02:50 40.64201 -73.79499 22 ft 13 kts 249°
2026-05-09 02:51 40.64154 -73.79606 22 ft 10 kts 208°
2026-05-09 02:51 40.64100 -73.79607 22 ft 8 kts 164°
2026-05-09 02:51 40.64042 -73.79576 22 ft 10 kts 153°
2026-05-09 02:51 40.63987 -73.79517 23 ft 10 kts 121°
2026-05-09 02:52 40.63940 -73.79412 23 ft 16 kts 121°
2026-05-09 02:52 40.63872 -73.79263 22 ft 21 kts 121°
2026-05-09 02:52 40.63797 -73.79099 25 ft 21 kts 121°
2026-05-09 02:52 40.63724 -73.78938 27 ft 20 kts 121°
2026-05-09 02:53 40.63655 -73.78782 26 ft 19 kts 121°
2026-05-09 02:53 40.63586 -73.78632 28 ft 19 kts 121°
2026-05-09 02:53 40.63517 -73.78480 26 ft 20 kts 121°
2026-05-09 02:53 40.63444 -73.78321 26 ft 21 kts 121°
2026-05-09 02:54 40.63369 -73.78155 25 ft 21 kts 121°
2026-05-09 02:54 40.63328 -73.77979 22 ft 19 kts 84°
2026-05-09 02:54 40.63332 -73.77859 23 ft 10 kts 107°
2026-05-09 02:54 40.63303 -73.77793 30 ft 7 kts 122°
2026-05-09 02:55 40.63273 -73.77730 27 ft 11 kts 121°
2026-05-09 02:55 40.63221 -73.77614 29 ft 20 kts 120°
2026-05-09 02:55 40.63144 -73.77443 22 ft 22 kts 121°
2026-05-09 02:55 40.63077 -73.77297 22 ft 14 kts 121°
2026-05-09 02:56 40.63027 -73.77188 22 ft 14 kts 121°
2026-05-09 02:56 40.62972 -73.77093 22 ft 10 kts 155°
2026-05-09 02:56 40.62927 -73.77102 22 ft 5 kts 207°
2026-05-09 02:56 40.62897 -73.77125 22 ft 5 kts 211°
2026-05-09 02:57 40.62893 -73.77128 23 ft 0 kts 211°
2026-05-09 02:57 40.62881 -73.77138 22 ft 5 kts 211°
2026-05-09 02:57 40.62828 -73.77181 22 ft 10 kts 218°
2026-05-09 02:58 40.62823 -73.77227 22 ft 4 kts 289°
2026-05-09 02:58 40.62843 -73.77280 22 ft 10 kts 303°
2026-05-09 02:58 40.62860 -73.77313 22 ft 13 kts 303°
2026-05-09 02:58 40.63033 -73.77700 25 ft 84 kts 300°
2026-05-09 02:59 40.63445 -73.78603 26 ft 145 kts 300°
2026-05-09 02:59 40.64046 -73.79942 240 ft 179 kts 301°
2026-05-09 02:59 40.64676 -73.81304 1058 ft 174 kts 301°
2026-05-09 02:59 40.65344 -73.82643 1547 ft 178 kts 302°
2026-05-09 03:00 40.65852 -73.84160 1824 ft 180 kts 289°
2026-05-09 03:00 40.66245 -73.85758 2099 ft 189 kts 283°
2026-05-09 03:00 40.66132 -73.87515 2263 ft 199 kts 250°
2026-05-09 03:00 40.65551 -73.89236 2466 ft 215 kts 241°
2026-05-09 03:01 40.64452 -73.90656 2685 ft 231 kts 210°
2026-05-09 03:01 40.62878 -73.91161 3159 ft 238 kts 182°
2026-05-09 03:01 40.61231 -73.90633 3514 ft 256 kts 158°
2026-05-09 03:01 40.59777 -73.89168 3841 ft 270 kts 140°
2026-05-09 03:02 40.58572 -73.87238 4211 ft 283 kts 124°
2026-05-09 03:02 40.57974 -73.84749 4596 ft 293 kts 94°
2026-05-09 03:02 40.58337 -73.82114 5002 ft 296 kts 63°
2026-05-09 03:02 40.59578 -73.80016 5456 ft 290 kts 33°
2026-05-09 03:03 40.61310 -73.78746 5972 ft 283 kts 16°
2026-05-09 03:03 40.63172 -73.77930 6475 ft 283 kts
2026-05-09 03:03 40.65073 -73.77243 7001 ft 285 kts
2026-05-09 03:03 40.66988 -73.76512 7540 ft 287 kts 11°
2026-05-09 03:04 40.68902 -73.75677 8079 ft 292 kts 13°
2026-05-09 03:04 40.70818 -73.74734 8629 ft 296 kts 15°
2026-05-09 03:04 40.72730 -73.73715 9229 ft 297 kts 16°
2026-05-09 03:04 40.74623 -73.72660 9804 ft 299 kts 17°
2026-05-09 03:05 40.76559 -73.71564 10237 ft 307 kts 17°
2026-05-09 03:05 40.78557 -73.70431 10467 ft 319 kts 17°
2026-05-09 03:05 40.80637 -73.69254 10711 ft 332 kts 18°
2026-05-09 03:05 40.82807 -73.68024 10949 ft 345 kts 18°
2026-05-09 03:06 40.85050 -73.66754 11167 ft 357 kts 18°
2026-05-09 03:06 40.87373 -73.65448 11384 ft 368 kts 18°
2026-05-09 03:06 40.89769 -73.64107 11617 ft 379 kts 18°
2026-05-09 03:06 40.92229 -73.62734 11830 ft 389 kts 18°
2026-05-09 03:07 40.94748 -73.61331 12114 ft 396 kts 18°
2026-05-09 03:07 40.97294 -73.59912 12547 ft 399 kts 18°
2026-05-09 03:07 40.99862 -73.58475 13000 ft 401 kts 18°
2026-05-09 03:07 41.02437 -73.57028 13471 ft 403 kts 18°
2026-05-09 03:08 41.05018 -73.55573 13897 ft 405 kts 18°
2026-05-09 03:08 41.07617 -73.54104 14273 ft 407 kts 18°
2026-05-09 03:08 41.10242 -73.52631 14616 ft 410 kts 17°
2026-05-09 03:08 41.12944 -73.51504 14955 ft 405 kts
2026-05-09 03:09 41.15712 -73.50851 15381 ft 403 kts
2026-05-09 03:09 41.18495 -73.50400 15758 ft 404 kts 360°
2026-05-09 03:09 41.21298 -73.50083 16148 ft 404 kts 358°
2026-05-09 03:09 41.24107 -73.49838 16553 ft 406 kts 358°
2026-05-09 03:10 41.26944 -73.49619 16937 ft 409 kts 357°
2026-05-09 03:10 41.29785 -73.49404 17324 ft 411 kts 357°
2026-05-09 03:10 41.32649 -73.49177 17716 ft 413 kts 358°
2026-05-09 03:10 41.35526 -73.48939 18100 ft 416 kts 358°
2026-05-09 03:11 41.38387 -73.48694 18447 ft 419 kts 358°
2026-05-09 03:11 41.41343 -73.48435 18777 ft 421 kts 358°
2026-05-09 03:11 41.44237 -73.48178 19115 ft 423 kts 358°
2026-05-09 03:11 41.47182 -73.47915 19469 ft 424 kts 357°
2026-05-09 03:12 41.50140 -73.47651 19805 ft 426 kts 357°
2026-05-09 03:12 41.53107 -73.47387 20131 ft 428 kts 357°
2026-05-09 03:12 41.56093 -73.47122 20459 ft 430 kts 357°
2026-05-09 03:12 41.59082 -73.46857 20790 ft 432 kts 357°
2026-05-09 03:13 41.65116 -73.46321 21491 ft 436 kts 357°
2026-05-09 03:13 41.68154 -73.46048 21849 ft 438 kts 357°
2026-05-09 03:13 41.71204 -73.45774 22196 ft 440 kts 357°
2026-05-09 03:14 41.74228 -73.45504 22545 ft 442 kts 357°
2026-05-09 03:14 41.77305 -73.45229 22854 ft 445 kts 357°
2026-05-09 03:14 41.80399 -73.44954 23221 ft 446 kts 357°
2026-05-09 03:14 41.83507 -73.44675 23577 ft 448 kts 357°
2026-05-09 03:15 41.86631 -73.44393 23862 ft 451 kts 356°
2026-05-09 03:15 41.89761 -73.44110 24168 ft 452 kts 356°
2026-05-09 03:15 41.92910 -73.43826 24483 ft 453 kts 356°
2026-05-09 03:15 41.96066 -73.43540 24787 ft 455 kts 356°
2026-05-09 03:16 41.99225 -73.43255 25089 ft 456 kts 356°
2026-05-09 03:16 42.02402 -73.42970 25373 ft 458 kts 356°
2026-05-09 03:16 42.05582 -73.42684 25665 ft 459 kts 356°
2026-05-09 03:16 42.08778 -73.42397 25932 ft 460 kts 356°
2026-05-09 03:17 42.11981 -73.42110 26183 ft 463 kts 356°
2026-05-09 03:17 42.15196 -73.41820 26491 ft 463 kts 356°
2026-05-09 03:17 42.18421 -73.41527 26766 ft 465 kts 355°
2026-05-09 03:17 42.21661 -73.41231 27039 ft 467 kts 355°
2026-05-09 03:18 42.24905 -73.40935 27319 ft 468 kts 355°
2026-05-09 03:18 42.28159 -73.40638 27624 ft 470 kts 355°
2026-05-09 03:18 42.31384 -73.40343 27890 ft 471 kts 355°
2026-05-09 03:18 42.34665 -73.40045 28147 ft 472 kts 355°
2026-05-09 03:19 42.37949 -73.39746 28370 ft 474 kts 355°
2026-05-09 03:19 42.41257 -73.39446 28601 ft 476 kts 355°
2026-05-09 03:19 42.44565 -73.39143 28877 ft 477 kts 355°
2026-05-09 03:19 42.47865 -73.38838 29259 ft 475 kts 355°
2026-05-09 03:20 42.51159 -73.38531 29584 ft 474 kts 355°
2026-05-09 03:20 42.54452 -73.38224 29905 ft 473 kts 355°
2026-05-09 03:20 42.57725 -73.37917 30211 ft 471 kts 355°
2026-05-09 03:20 42.60995 -73.37610 30428 ft 472 kts 355°
2026-05-09 03:21 42.64280 -73.37306 30611 ft 473 kts 355°
2026-05-09 03:21 42.67572 -73.37004 30791 ft 474 kts 355°
2026-05-09 03:21 42.70870 -73.36701 31022 ft 474 kts 355°
2026-05-09 03:21 42.74160 -73.36396 31209 ft 475 kts 355°
2026-05-09 03:22 42.77460 -73.36091 31350 ft 476 kts 355°
2026-05-09 03:22 42.80764 -73.35786 31564 ft 476 kts 356°
2026-05-09 03:22 42.84027 -73.35483 31734 ft 476 kts 356°
2026-05-09 03:22 42.87339 -73.35175 31890 ft 477 kts 356°
2026-05-09 03:23 42.90647 -73.34867 32079 ft 477 kts 356°
2026-05-09 03:23 42.93958 -73.34557 32258 ft 477 kts 356°
2026-05-09 03:23 43.00494 -73.34906 32500 ft 461 kts 342°
2026-05-09 03:24 43.05590 -73.36619 32811 ft 453 kts 336°
2026-05-09 03:24 43.17571 -73.42072 33351 ft 453 kts 335°
2026-05-09 03:24 43.29580 -73.47553 33888 ft 456 kts 335°
2026-05-09 03:24 43.41735 -73.53053 33972 ft 463 kts 336°
2026-05-09 03:25 43.66296 -73.64245 33965 ft 465 kts 336°
2026-05-09 03:25 43.90848 -73.75536 33961 ft 465 kts 336°
2026-05-09 03:26 44.15327 -73.86895 33941 ft 466 kts 336°
2026-05-09 03:26 44.39868 -73.98378 33945 ft 465 kts 336°
2026-05-09 03:27 44.64558 -74.10040 33925 ft 465 kts 336°
2026-05-09 03:27 44.89285 -74.20569 33905 ft 469 kts 340°
2026-05-09 03:28 45.14427 -74.30712 33898 ft 472 kts 339°
2026-05-09 03:28 45.39736 -74.41042 33895 ft 473 kts 339°
2026-05-09 03:29 45.65053 -74.51473 33893 ft 473 kts 340°
2026-05-09 03:29 45.90299 -74.61975 33875 ft 473 kts 340°
2026-05-09 03:30 46.15618 -74.72605 33887 ft 475 kts 340°
2026-05-09 03:30 46.41063 -74.83391 33876 ft 477 kts 340°
2026-05-09 03:31 46.66545 -74.94298 33871 ft 477 kts 340°
2026-05-09 03:31 46.92088 -75.05341 33861 ft 477 kts 340°
2026-05-09 03:32 47.13242 -75.14568 33854 ft 477 kts 340°
2026-05-09 03:32 47.38680 -75.25762 33855 ft 476 kts 340°
2026-05-09 03:33 47.64081 -75.37058 33852 ft 477 kts 340°
2026-05-09 03:33 47.89502 -75.48479 33841 ft 478 kts 340°
2026-05-09 03:34 48.14991 -75.60048 33829 ft 479 kts 340°
2026-05-09 03:34 48.40356 -75.71681 33828 ft 481 kts 340°
2026-05-09 03:35 48.65982 -75.83560 33819 ft 482 kts 340°
2026-05-09 03:35 48.91691 -75.95604 33813 ft 483 kts 340°
2026-05-09 03:36 49.16987 -76.09311 33801 ft 482 kts 336°
2026-05-09 03:36 49.42103 -76.24049 33801 ft 483 kts 336°
2026-05-09 03:37 49.67239 -76.38913 33798 ft 485 kts 337°
2026-05-09 03:37 49.92469 -76.54003 33792 ft 486 kts 337°
2026-05-09 03:38 50.17615 -76.69209 33779 ft 488 kts 337°
2026-05-09 03:38 50.42999 -76.84736 33767 ft 490 kts 337°
2026-05-09 03:39 50.68408 -77.00457 33761 ft 491 kts 337°
2026-05-09 03:39 50.93847 -77.16382 33758 ft 491 kts 337°
2026-05-09 03:40 51.19068 -77.32359 33746 ft 490 kts 337°
2026-05-09 03:40 51.44419 -77.48610 33744 ft 491 kts 337°
2026-05-09 03:41 51.69797 -77.65074 33730 ft 492 kts 337°
2026-05-09 03:41 51.95207 -77.81760 33720 ft 493 kts 336°
2026-05-09 03:42 52.20603 -77.98642 33714 ft 494 kts 336°
2026-05-09 03:42 52.45893 -78.15665 33715 ft 494 kts 336°
2026-05-09 03:43 52.71350 -78.33018 33712 ft 495 kts 337°
2026-05-09 03:43 52.96847 -78.50613 33703 ft 497 kts 337°
2026-05-09 03:44 53.22378 -78.68463 33698 ft 498 kts 337°
2026-05-09 03:44 53.47946 -78.86573 33692 ft 499 kts 337°
2026-05-09 03:45 53.73522 -79.04929 33682 ft 499 kts 337°
2026-05-09 03:45 53.99071 -79.23509 33673 ft 500 kts 337°
2026-05-09 03:46 54.24650 -79.42363 33671 ft 500 kts 337°
2026-05-09 03:46 54.50045 -79.61337 33658 ft 500 kts 337°
2026-05-09 03:47 54.75551 -79.80656 33652 ft 501 kts 337°
2026-05-09 03:47 55.00962 -80.00629 33653 ft 501 kts 329°
2026-05-09 03:48 55.24500 -80.26831 33642 ft 501 kts 328°
2026-05-09 03:48 55.47980 -80.53536 33641 ft 502 kts 328°
2026-05-09 03:49 55.71215 -80.80343 33638 ft 503 kts 328°
2026-05-09 03:49 55.94598 -81.07717 33634 ft 503 kts 328°
2026-05-09 03:50 56.17953 -81.35464 33631 ft 502 kts 328°
2026-05-09 03:50 56.41199 -81.63491 33624 ft 503 kts 328°
2026-05-09 03:51 56.64280 -81.91738 33619 ft 504 kts 328°
2026-05-09 03:51 56.87451 -82.20528 33613 ft 504 kts 328°
2026-05-09 03:52 57.10592 -82.49721 33604 ft 505 kts 327°
2026-05-09 03:52 57.33701 -82.79331 33599 ft 505 kts 327°
2026-05-09 03:53 57.56727 -83.09295 33593 ft 506 kts 327°
2026-05-09 03:53 57.79716 -83.39691 33580 ft 506 kts 327°
2026-05-09 03:54 58.02622 -83.70461 33573 ft 506 kts 327°
2026-05-09 03:54 58.25370 -84.01515 33563 ft 506 kts 327°
2026-05-09 03:55 58.48155 -84.33123 33558 ft 507 kts 327°
2026-05-09 03:55 58.70929 -84.65242 33548 ft 507 kts 326°
2026-05-09 03:56 58.93593 -84.97742 33545 ft 508 kts 326°
2026-05-09 03:56 59.16182 -85.30682 33538 ft 508 kts 326°
2026-05-09 03:57 59.38582 -85.63904 33540 ft 508 kts 326°
2026-05-09 03:57 59.61022 -85.97757 33541 ft 508 kts 326°
2026-05-09 03:58 59.83369 -86.32058 33545 ft 508 kts 325°
2026-05-09 03:58 60.05639 -86.66838 33556 ft 508 kts 325°
2026-05-09 03:59 60.27792 -87.02052 33577 ft 508 kts 325°
2026-05-09 03:59 60.49906 -87.37838 33585 ft 508 kts 324°
2026-05-09 04:00 60.71871 -87.74026 33600 ft 507 kts 324°
2026-05-09 04:00 60.93717 -88.10679 33608 ft 507 kts 324°
2026-05-09 04:01 61.15494 -88.47890 33631 ft 507 kts 324°
2026-05-09 04:01 61.37000 -88.85328 33649 ft 507 kts 324°
2026-05-09 04:02 61.58569 -89.23577 33665 ft 507 kts 323°
2026-05-09 04:02 61.79940 -89.62199 33694 ft 505 kts 323°
2026-05-09 04:03 62.00855 -90.01607 33713 ft 508 kts 314°
2026-05-09 04:03 62.18363 -90.48941 33725 ft 508 kts 312°
2026-05-09 04:04 62.35633 -90.96999 33747 ft 508 kts 311°
2026-05-09 04:04 62.52709 -91.45538 33770 ft 506 kts 311°
2026-05-09 04:05 62.68913 -91.92571 33790 ft 506 kts 310°
2026-05-09 04:05 62.85631 -92.42137 33795 ft 505 kts 310°
2026-05-09 04:06 63.02120 -92.92107 33814 ft 505 kts 310°
2026-05-09 04:06 63.18326 -93.42311 33826 ft 505 kts 309°
2026-05-09 04:07 63.34436 -93.93353 33866 ft 504 kts 309°
2026-05-09 04:07 63.50366 -94.44973 33874 ft 503 kts 309°
2026-05-09 04:08 63.66046 -94.96956 33892 ft 501 kts 309°
2026-05-09 04:08 63.81486 -95.49348 33911 ft 500 kts 308°
2026-05-09 04:09 63.96680 -96.02125 33932 ft 499 kts 308°
2026-05-09 04:09 64.11669 -96.55432 33945 ft 498 kts 308°
2026-05-09 04:10 64.26420 -97.09165 33969 ft 496 kts 309°
2026-05-09 04:10 64.40927 -97.63297 33983 ft 495 kts 308°
2026-05-09 04:11 64.55197 -98.17868 34001 ft 492 kts 308°
2026-05-09 04:11 64.69124 -98.72448 34026 ft 489 kts 308°
2026-05-09 04:12 64.82709 -99.27024 34048 ft 487 kts 307°
2026-05-09 04:12 64.96172 -99.82488 34091 ft 486 kts 307°
2026-05-09 04:13 65.09717 -100.37666 34090 ft 484 kts 308°
2026-05-09 04:13 65.23249 -100.93191 34111 ft 484 kts 307°
2026-05-09 04:14 65.36556 -101.49246 34127 ft 485 kts 306°
2026-05-09 04:14 65.49602 -102.05653 34140 ft 486 kts 305°
2026-05-09 04:15 65.62566 -102.63207 34153 ft 488 kts 304°
2026-05-09 04:15 65.75327 -103.21405 34164 ft 489 kts 303°
2026-05-09 04:16 65.83600 -103.60007 34165 ft 489 kts 302°
2026-05-09 04:16 65.86719 -103.74774 34168 ft 489 kts 301°
2026-05-09 04:17 65.89828 -103.89585 34168 ft 490 kts 301°
2026-05-09 04:17 65.92931 -104.04450 34170 ft 490 kts 301°
2026-05-09 04:18 65.94458 -104.11820 34166 ft 479 kts 301°
2026-05-09 04:18 65.95963 -104.19107 34175 ft 481 kts 301°
2026-05-09 04:18 65.98991 -104.33798 34169 ft 490 kts 300°
2026-05-09 04:19 66.02064 -104.48823 34185 ft 491 kts 300°
2026-05-09 04:19 66.05114 -104.63851 34177 ft 490 kts 300°
2026-05-09 04:20 66.08137 -104.78889 34180 ft 490 kts 300°
2026-05-09 04:20 66.11157 -104.94018 34178 ft 491 kts 300°
2026-05-09 04:21 66.13651 -105.06572 34183 ft 491 kts 299°
2026-05-09 04:22 66.18628 -105.31817 34190 ft 491 kts 298°
2026-05-09 04:22 66.21097 -105.44466 34196 ft 490 kts 298°
2026-05-09 04:23 66.24530 -105.62213 34191 ft 491 kts 297°
2026-05-09 04:23 66.26988 -105.75020 34191 ft 491 kts 297°
2026-05-09 04:24 66.29912 -105.90350 34213 ft 491 kts 297°
2026-05-09 04:24 66.32820 -106.05700 34192 ft 491 kts 296°
2026-05-09 04:25 66.35695 -106.20987 34195 ft 490 kts 296°
2026-05-09 04:25 66.38568 -106.36381 34222 ft 490 kts 296°
2026-05-09 04:26 66.41429 -106.51831 34212 ft 490 kts 295°
2026-05-09 04:26 66.44279 -106.67338 34234 ft 490 kts 295°
2026-05-09 04:27 66.47107 -106.82841 34223 ft 490 kts 294°
2026-05-09 04:27 66.49919 -106.98372 34222 ft 490 kts 294°
2026-05-09 04:28 66.52710 -107.13939 34225 ft 489 kts 294°
2026-05-09 04:28 66.55472 -107.29437 34228 ft 489 kts 294°
2026-05-09 04:29 66.58239 -107.45081 34232 ft 489 kts 294°
2026-05-09 04:29 66.60988 -107.60747 34233 ft 489 kts 293°
2026-05-09 04:30 66.63717 -107.76427 34240 ft 489 kts 293°
2026-05-09 04:30 66.66432 -107.92153 34236 ft 488 kts 292°
2026-05-09 04:31 66.69129 -108.07895 34243 ft 488 kts 292°
2026-05-09 04:31 66.71788 -108.23549 34245 ft 488 kts 292°
2026-05-09 04:32 66.74459 -108.39396 34246 ft 488 kts 291°
2026-05-09 04:32 66.77105 -108.55220 34247 ft 488 kts 291°
2026-05-09 04:33 66.79735 -108.71084 34248 ft 488 kts 291°
2026-05-09 04:33 66.82335 -108.86892 34249 ft 488 kts 291°
2026-05-09 04:34 66.84930 -109.02803 34251 ft 487 kts 290°
2026-05-09 04:34 66.87514 -109.18774 34253 ft 487 kts 290°
2026-05-09 04:35 66.90077 -109.34754 34258 ft 487 kts 290°
2026-05-09 04:35 66.92608 -109.50670 34258 ft 486 kts 290°
2026-05-09 04:36 66.95131 -109.66663 34260 ft 486 kts 290°
2026-05-09 04:36 66.97638 -109.82697 34261 ft 485 kts 290°
2026-05-09 04:37 67.00117 -109.98683 34619 ft 480 kts 290°
2026-05-09 04:37 67.01322 -110.06628 34909 ft 477 kts 289°
2026-05-09 04:37 67.02419 -110.14511 35120 ft 475 kts 288°
2026-05-09 04:37 67.03475 -110.22526 35298 ft 475 kts 288°
2026-05-09 04:38 67.04515 -110.30563 35464 ft 475 kts 288°
2026-05-09 04:38 67.05553 -110.38585 35622 ft 474 kts 288°
2026-05-09 04:38 67.06598 -110.46618 35785 ft 474 kts 288°
2026-05-09 04:38 67.07646 -110.54634 35941 ft 474 kts 288°
2026-05-09 04:39 67.08696 -110.62648 36085 ft 474 kts 289°
2026-05-09 04:39 67.09747 -110.70675 36222 ft 474 kts 289°
2026-05-09 04:39 67.10797 -110.78716 36278 ft 476 kts 289°
2026-05-09 04:40 67.12910 -110.94985 36267 ft 481 kts 289°
2026-05-09 04:40 67.15009 -111.11295 36279 ft 480 kts 289°
2026-05-09 04:41 67.17074 -111.27535 36270 ft 479 kts 289°
2026-05-09 04:41 67.19134 -111.43906 36271 ft 479 kts 288°
2026-05-09 04:42 67.21171 -111.60254 36270 ft 479 kts 288°
2026-05-09 04:42 67.23189 -111.76610 36272 ft 478 kts 288°
2026-05-09 04:43 67.25193 -111.93007 36270 ft 478 kts 288°
2026-05-09 04:43 67.27174 -112.09393 36273 ft 477 kts 288°
2026-05-09 04:44 67.29128 -112.25711 36275 ft 477 kts 288°
2026-05-09 04:44 67.31075 -112.42140 36271 ft 477 kts 288°
2026-05-09 04:45 67.33003 -112.58573 36273 ft 476 kts 288°
2026-05-09 04:45 67.34911 -112.75003 36270 ft 476 kts 288°
2026-05-09 04:46 67.36801 -112.91456 36269 ft 475 kts 288°
2026-05-09 04:46 67.38673 -113.07917 36270 ft 475 kts 287°
2026-05-09 04:47 67.40516 -113.24293 36269 ft 474 kts 287°
2026-05-09 04:47 67.42349 -113.40759 36266 ft 474 kts 287°
2026-05-09 04:48 67.44165 -113.57255 36264 ft 473 kts 287°
2026-05-09 04:48 67.45962 -113.73751 36264 ft 473 kts 287°
2026-05-09 04:49 67.47741 -113.90261 36263 ft 472 kts 287°
2026-05-09 04:49 67.49499 -114.06755 36264 ft 472 kts 287°
2026-05-09 04:50 67.51241 -114.23283 36264 ft 471 kts 287°
2026-05-09 04:50 67.52962 -114.39790 36259 ft 470 kts 287°
2026-05-09 04:51 67.54665 -114.56314 36260 ft 470 kts 286°
2026-05-09 04:51 67.56350 -114.72850 36260 ft 470 kts 286°
2026-05-09 04:52 67.58004 -114.89268 36255 ft 469 kts 286°
2026-05-09 04:52 67.59652 -115.05819 36254 ft 469 kts 286°
2026-05-09 04:53 67.61286 -115.22415 36250 ft 468 kts 286°
2026-05-09 04:53 67.62895 -115.38961 36251 ft 468 kts 286°
2026-05-09 04:54 67.64488 -115.55528 36251 ft 467 kts 285°
2026-05-09 04:54 67.66060 -115.72074 36251 ft 467 kts 285°
2026-05-09 04:55 67.67615 -115.88650 36246 ft 466 kts 285°
2026-05-09 04:55 67.69153 -116.05239 36246 ft 466 kts 285°
2026-05-09 04:56 67.70662 -116.21708 36242 ft 466 kts 285°
2026-05-09 04:56 67.72164 -116.38318 36245 ft 465 kts 285°
2026-05-09 04:57 67.73645 -116.54900 36240 ft 465 kts 285°
2026-05-09 04:57 67.75109 -116.71508 36238 ft 464 kts 285°
2026-05-09 04:58 67.76556 -116.88121 36237 ft 464 kts 284°
2026-05-09 04:58 67.77971 -117.04596 36237 ft 463 kts 284°
2026-05-09 04:59 67.79381 -117.21211 36235 ft 463 kts 284°
2026-05-09 04:59 67.80770 -117.37800 36234 ft 462 kts 284°
2026-05-09 05:00 67.82142 -117.54413 36232 ft 462 kts 284°
2026-05-09 05:00 67.83498 -117.71049 36234 ft 461 kts 284°
2026-05-09 05:01 67.84835 -117.87689 36231 ft 461 kts 284°
2026-05-09 05:01 67.86146 -118.04213 36229 ft 460 kts 283°
2026-05-09 05:02 67.87445 -118.20834 36226 ft 460 kts 283°
2026-05-09 05:02 67.88728 -118.37466 36229 ft 460 kts 283°
2026-05-09 05:03 67.89993 -118.54124 36227 ft 459 kts 283°
2026-05-09 05:03 67.91241 -118.70777 36224 ft 459 kts 283°
2026-05-09 05:04 67.92470 -118.87423 36222 ft 459 kts 283°
2026-05-09 05:04 67.93674 -119.03991 36217 ft 458 kts 282°
2026-05-09 05:05 67.94869 -119.20664 36218 ft 458 kts 282°
2026-05-09 05:05 67.96045 -119.37331 36217 ft 458 kts 282°
2026-05-09 05:06 67.97202 -119.54000 36214 ft 457 kts 282°
2026-05-09 05:06 67.98336 -119.70571 36223 ft 457 kts 282°
2026-05-09 05:07 67.99458 -119.87229 36220 ft 457 kts 282°
2026-05-09 05:07 68.00881 -120.03731 36217 ft 455 kts 289°
2026-05-09 05:08 68.02939 -120.19737 36211 ft 456 kts 290°
2026-05-09 05:08 68.05080 -120.35694 36210 ft 456 kts 290°
2026-05-09 05:09 68.07214 -120.51689 36207 ft 456 kts 290°
2026-05-09 05:09 68.09319 -120.67713 36199 ft 456 kts 290°
2026-05-09 05:10 68.11049 -120.81041 36201 ft 456 kts 290°
2026-05-09 05:10 68.13453 -120.99742 36198 ft 456 kts 290°
2026-05-09 05:11 68.15501 -121.15833 36191 ft 456 kts 289°
2026-05-09 05:11 68.17208 -121.29357 36192 ft 455 kts 289°
2026-05-09 05:12 68.19225 -121.45480 36190 ft 455 kts 289°
2026-05-09 05:12 68.21215 -121.61542 36188 ft 455 kts 289°
2026-05-09 05:13 68.23202 -121.77726 36182 ft 455 kts 289°
2026-05-09 05:13 68.25173 -121.93942 36176 ft 455 kts 289°
2026-05-09 05:14 68.27124 -122.10154 36173 ft 454 kts 289°
2026-05-09 05:14 68.29061 -122.26406 36172 ft 454 kts 288°
2026-05-09 05:15 68.30983 -122.42693 36169 ft 454 kts 288°
2026-05-09 05:15 68.32874 -122.58879 36163 ft 454 kts 288°
2026-05-09 05:16 68.34761 -122.75191 36161 ft 454 kts 288°
2026-05-09 05:16 68.36633 -122.91542 36154 ft 454 kts 288°
2026-05-09 05:17 68.38488 -123.07905 36152 ft 454 kts 288°
2026-05-09 05:17 68.40327 -123.24301 36152 ft 454 kts 287°
2026-05-09 05:18 68.42149 -123.40710 36146 ft 454 kts 287°
2026-05-09 05:18 68.43955 -123.57150 36141 ft 454 kts 287°
2026-05-09 05:19 68.45735 -123.73525 36134 ft 453 kts 287°
2026-05-09 05:19 68.47508 -123.90006 36129 ft 453 kts 287°
2026-05-09 05:20 68.49268 -124.06549 36130 ft 453 kts 286°
2026-05-09 05:20 68.51007 -124.23069 36123 ft 453 kts 286°
2026-05-09 05:21 68.52722 -124.39534 36123 ft 453 kts 286°
2026-05-09 05:21 68.54432 -124.56139 36120 ft 453 kts 286°
2026-05-09 05:22 68.56124 -124.72758 36115 ft 453 kts 285°
2026-05-09 05:22 68.57798 -124.89379 36117 ft 453 kts 285°
2026-05-09 05:23 68.59455 -125.06029 36111 ft 453 kts 285°
2026-05-09 05:23 68.61089 -125.22622 36111 ft 453 kts 285°
2026-05-09 05:24 68.62713 -125.39314 36109 ft 454 kts 285°
2026-05-09 05:24 68.64323 -125.56051 36103 ft 454 kts 285°
2026-05-09 05:25 68.65917 -125.72829 36102 ft 454 kts 284°
2026-05-09 05:25 68.68276 -125.98013 36097 ft 454 kts 284°
2026-05-09 05:26 68.69817 -126.14718 36094 ft 454 kts 284°
2026-05-09 05:26 68.71350 -126.31547 36097 ft 454 kts 284°
2026-05-09 05:27 68.72868 -126.48416 36092 ft 454 kts 284°
2026-05-09 05:27 68.74371 -126.65319 36086 ft 454 kts 284°
2026-05-09 05:28 68.75848 -126.82148 36087 ft 454 kts 283°
2026-05-09 05:28 68.77316 -126.99099 36081 ft 454 kts 283°
2026-05-09 05:29 68.78771 -127.16093 36088 ft 454 kts 283°
2026-05-09 05:29 68.80205 -127.33073 36085 ft 454 kts 283°
2026-05-09 05:30 68.81624 -127.50103 36073 ft 454 kts 283°
2026-05-09 05:30 68.83026 -127.67157 36078 ft 454 kts 283°
2026-05-09 05:31 68.84413 -127.84255 36072 ft 455 kts 282°
2026-05-09 05:31 68.85773 -128.01254 36068 ft 455 kts 282°
2026-05-09 05:32 68.87125 -128.18382 36069 ft 455 kts 282°
2026-05-09 05:32 68.88458 -128.35517 36070 ft 455 kts 282°
2026-05-09 05:33 68.89776 -128.52697 36065 ft 455 kts 282°
2026-05-09 05:33 68.91078 -128.69902 36070 ft 455 kts 281°
2026-05-09 05:34 68.92362 -128.87137 36068 ft 456 kts 281°
2026-05-09 05:34 68.93631 -129.04416 36059 ft 455 kts 281°
2026-05-09 05:35 68.94874 -129.21594 36053 ft 456 kts 281°
2026-05-09 05:35 68.96107 -129.38908 36057 ft 456 kts 281°
2026-05-09 05:36 68.97323 -129.56240 36054 ft 456 kts 281°
2026-05-09 05:36 68.98521 -129.73585 36055 ft 456 kts 280°
2026-05-09 05:37 68.99703 -129.90970 36053 ft 456 kts 280°
2026-05-09 05:37 69.00830 -130.08415 36052 ft 456 kts 278°
2026-05-09 05:38 69.01637 -130.25895 36054 ft 456 kts 276°
2026-05-09 05:38 69.02363 -130.43480 36051 ft 456 kts 276°
2026-05-09 05:39 69.03115 -130.61107 36051 ft 456 kts 277°
2026-05-09 05:39 69.03880 -130.78728 36055 ft 457 kts 276°
2026-05-09 05:40 69.04634 -130.96352 36058 ft 457 kts 276°
2026-05-09 05:40 69.05365 -131.13880 36058 ft 457 kts 276°
2026-05-09 05:41 69.06080 -131.31551 36057 ft 458 kts 276°
2026-05-09 05:41 69.06778 -131.49253 36061 ft 458 kts 276°
2026-05-09 05:42 69.07458 -131.66973 36060 ft 458 kts 276°
2026-05-09 05:42 69.08121 -131.84739 36060 ft 458 kts 275°
2026-05-09 05:43 69.08761 -132.02382 36058 ft 459 kts 275°
2026-05-09 05:43 69.09387 -132.20171 36058 ft 459 kts 275°
2026-05-09 05:44 69.09996 -132.37980 36060 ft 459 kts 275°
2026-05-09 05:44 69.10586 -132.55804 36065 ft 459 kts 275°
2026-05-09 05:45 69.11154 -132.73541 36068 ft 460 kts 274°
2026-05-09 05:45 69.11707 -132.91398 36076 ft 460 kts 274°
2026-05-09 05:46 69.12242 -133.09294 36079 ft 460 kts 274°
2026-05-09 05:46 69.12759 -133.27189 36083 ft 460 kts 274°
2026-05-09 05:47 69.13258 -133.45111 36091 ft 461 kts 274°
2026-05-09 05:47 69.13738 -133.63042 36091 ft 461 kts 274°
2026-05-09 05:48 69.14198 -133.80899 36091 ft 461 kts 273°
2026-05-09 05:48 69.14641 -133.98862 36091 ft 462 kts 273°
2026-05-09 05:49 69.15066 -134.16867 36092 ft 462 kts 273°
2026-05-09 05:49 69.15473 -134.34883 36096 ft 462 kts 273°
2026-05-09 05:50 69.15861 -134.52909 36094 ft 463 kts 272°
2026-05-09 05:50 69.16231 -134.70990 36094 ft 463 kts 272°
2026-05-09 05:51 69.16582 -134.89068 36095 ft 463 kts 272°
2026-05-09 05:51 69.16912 -135.07057 36095 ft 464 kts 272°
2026-05-09 05:52 69.17226 -135.25197 36097 ft 464 kts 272°
2026-05-09 05:52 69.17520 -135.43321 36099 ft 465 kts 272°
2026-05-09 05:53 69.17796 -135.61469 36099 ft 465 kts 271°
2026-05-09 05:53 69.18053 -135.79648 36098 ft 465 kts 271°
2026-05-09 05:54 69.18291 -135.97856 36105 ft 466 kts 271°
2026-05-09 05:54 69.18510 -136.16074 36106 ft 466 kts 271°
2026-05-09 05:55 69.18709 -136.34285 36108 ft 467 kts 271°
2026-05-09 05:55 69.18890 -136.52531 36102 ft 467 kts 271°
2026-05-09 05:56 69.19051 -136.70812 36108 ft 467 kts 270°
2026-05-09 05:56 69.19193 -136.88988 36111 ft 468 kts 270°
2026-05-09 05:57 69.19316 -137.07302 36113 ft 468 kts 270°
2026-05-09 05:57 69.19419 -137.25617 36117 ft 469 kts 270°
2026-05-09 05:58 69.19504 -137.43970 36121 ft 469 kts 270°
2026-05-09 05:58 69.19559 -137.59262 36121 ft 469 kts 270°
2026-05-09 05:59 69.19614 -137.80625 36124 ft 470 kts 269°
2026-05-09 05:59 69.19637 -137.96027 36120 ft 470 kts 269°
2026-05-09 06:00 69.19647 -138.14310 36126 ft 470 kts 269°
2026-05-09 06:00 69.19637 -138.32708 36127 ft 471 kts 269°
2026-05-09 06:01 69.19607 -138.51126 36129 ft 471 kts 269°
2026-05-09 06:01 69.19558 -138.69579 36133 ft 471 kts 269°
2026-05-09 06:02 69.19488 -138.88010 36136 ft 472 kts 269°
2026-05-09 06:02 69.19399 -139.06496 36134 ft 472 kts 268°
2026-05-09 06:03 69.19291 -139.24981 36136 ft 473 kts 268°
2026-05-09 06:03 69.19163 -139.43331 36137 ft 473 kts 268°
2026-05-09 06:04 69.19015 -139.61836 36132 ft 473 kts 268°
2026-05-09 06:04 69.18846 -139.80343 36127 ft 474 kts 268°
2026-05-09 06:05 69.18656 -139.98877 36125 ft 474 kts 267°
2026-05-09 06:05 69.18448 -140.17429 36119 ft 474 kts 267°
2026-05-09 06:06 69.18219 -140.35999 36118 ft 475 kts 267°
2026-05-09 06:06 69.17971 -140.54440 36108 ft 475 kts 267°
2026-05-09 06:07 69.17701 -140.73049 36106 ft 476 kts 267°
2026-05-09 06:07 69.17414 -140.91671 36094 ft 476 kts 266°
2026-05-09 06:08 69.17182 -141.10298 36094 ft 477 kts 269°
2026-05-09 06:08 69.17325 -141.28985 36082 ft 479 kts 271°
2026-05-09 06:09 69.17518 -141.47584 36084 ft 479 kts 270°
2026-05-09 06:09 69.17635 -141.66346 36078 ft 480 kts 270°
2026-05-09 06:10 69.17695 -141.85098 36076 ft 480 kts 269°
2026-05-09 06:10 69.17724 -142.03883 36068 ft 481 kts 269°
2026-05-09 06:11 69.17737 -142.22697 36064 ft 481 kts 269°
2026-05-09 06:11 69.17733 -142.41492 36068 ft 482 kts 269°
2026-05-09 06:12 69.17708 -142.60313 36061 ft 482 kts 269°
2026-05-09 06:12 69.17663 -142.79170 36063 ft 483 kts 269°
2026-05-09 06:13 69.17596 -142.97938 36062 ft 483 kts 269°
2026-05-09 06:13 69.17507 -143.16830 36052 ft 483 kts 268°
2026-05-09 06:14 69.17398 -143.35715 36044 ft 484 kts 268°
2026-05-09 06:14 69.17269 -143.54672 36026 ft 484 kts 268°
2026-05-09 06:15 69.17119 -143.73488 36009 ft 485 kts 268°
2026-05-09 06:15 69.16945 -143.92468 35995 ft 486 kts 268°
2026-05-09 06:16 69.16753 -144.11464 35980 ft 486 kts 268°
2026-05-09 06:16 69.16539 -144.30451 35983 ft 487 kts 268°
2026-05-09 06:17 69.16304 -144.49487 35988 ft 487 kts 268°
2026-05-09 06:17 69.16049 -144.68514 35989 ft 488 kts 267°
2026-05-09 06:18 69.15774 -144.87442 35997 ft 488 kts 267°
2026-05-09 06:18 69.15473 -145.06547 36006 ft 489 kts 267°
2026-05-09 06:19 69.15152 -145.25628 36016 ft 489 kts 267°
2026-05-09 06:19 69.14812 -145.44737 36021 ft 490 kts 267°
2026-05-09 06:20 69.14449 -145.63842 36028 ft 490 kts 266°
2026-05-09 06:20 69.14066 -145.82856 36043 ft 491 kts 266°
2026-05-09 06:21 69.13659 -146.01987 36038 ft 491 kts 266°
2026-05-09 06:21 69.13230 -146.21178 36048 ft 492 kts 266°
2026-05-09 06:22 69.12780 -146.40347 36055 ft 492 kts 266°
2026-05-09 06:22 69.12312 -146.59395 36061 ft 493 kts 266°
2026-05-09 06:23 69.11818 -146.78567 36074 ft 493 kts 266°
2026-05-09 06:23 69.11300 -146.97806 36078 ft 494 kts 266°
2026-05-09 06:24 69.10764 -147.17003 36087 ft 494 kts 265°
2026-05-09 06:24 69.10205 -147.36214 36088 ft 495 kts 265°
2026-05-09 06:25 69.09622 -147.55443 36090 ft 496 kts 265°
2026-05-09 06:25 69.09022 -147.74580 36096 ft 496 kts 265°
2026-05-09 06:26 69.08396 -147.93842 36102 ft 497 kts 265°
2026-05-09 06:26 69.07746 -148.13122 36105 ft 497 kts 265°
2026-05-09 06:27 69.07075 -148.32386 36111 ft 498 kts 265°
2026-05-09 06:27 69.06382 -148.51670 36112 ft 498 kts 264°
2026-05-09 06:28 69.05667 -148.70940 36117 ft 498 kts 264°
2026-05-09 06:28 69.04936 -148.90065 36116 ft 498 kts 264°
2026-05-09 06:29 69.04176 -149.09350 36118 ft 499 kts 264°
2026-05-09 06:29 69.03394 -149.28638 36124 ft 499 kts 264°
2026-05-09 06:30 69.02590 -149.47931 36127 ft 500 kts 264°
2026-05-09 06:30 69.01765 -149.67180 36128 ft 500 kts 264°
2026-05-09 06:31 69.00917 -149.86459 36130 ft 500 kts 263°
2026-05-09 06:31 68.99404 -150.05258 36137 ft 501 kts 249°
2026-05-09 06:32 68.96780 -150.23196 36136 ft 499 kts 247°
2026-05-09 06:33 68.92552 -150.49690 36137 ft 499 kts 247°
2026-05-09 06:33 68.89724 -150.67237 36135 ft 500 kts 247°
2026-05-09 06:34 68.85454 -150.93632 36138 ft 501 kts 247°
2026-05-09 06:34 68.82582 -151.11221 36138 ft 501 kts 246°
2026-05-09 06:35 68.79689 -151.28776 36136 ft 502 kts 246°
2026-05-09 06:35 68.76775 -151.46299 36137 ft 502 kts 246°
2026-05-09 06:36 68.73841 -151.63785 36131 ft 503 kts 246°
2026-05-09 06:36 68.70899 -151.81165 36130 ft 503 kts 246°
2026-05-09 06:37 68.67923 -151.98597 36124 ft 504 kts 246°
2026-05-09 06:37 68.64926 -152.15999 36122 ft 504 kts 246°
2026-05-09 06:38 68.61904 -152.33393 36116 ft 505 kts 246°
2026-05-09 06:38 68.58880 -152.50652 36117 ft 505 kts 245°
2026-05-09 06:39 68.55814 -152.68001 36116 ft 506 kts 245°
2026-05-09 06:39 68.52734 -152.85285 36102 ft 506 kts 245°
2026-05-09 06:40 68.49630 -153.02555 36091 ft 507 kts 245°
2026-05-09 06:40 68.46499 -153.19828 36085 ft 508 kts 245°
2026-05-09 06:41 68.43351 -153.37047 36071 ft 508 kts 245°
2026-05-09 06:41 68.40206 -153.54109 36063 ft 509 kts 245°
2026-05-09 06:42 68.37017 -153.71266 36046 ft 510 kts 245°
2026-05-09 06:42 68.33797 -153.88441 36039 ft 510 kts 245°
2026-05-09 06:43 68.30570 -154.05520 36031 ft 511 kts 244°
2026-05-09 06:43 68.27329 -154.22527 36019 ft 512 kts 244°
2026-05-09 06:44 68.24052 -154.39583 36012 ft 512 kts 244°
2026-05-09 06:44 68.20756 -154.56595 36003 ft 513 kts 244°
2026-05-09 06:45 68.17443 -154.73561 35995 ft 513 kts 244°
2026-05-09 06:45 68.14104 -154.90524 35987 ft 513 kts 244°
2026-05-09 06:46 68.10745 -155.07444 35971 ft 513 kts 244°
2026-05-09 06:46 68.07376 -155.24282 35959 ft 513 kts 244°
2026-05-09 06:47 68.03981 -155.41119 35951 ft 514 kts 244°
2026-05-09 06:47 68.00596 -155.57775 35940 ft 514 kts 244°
2026-05-09 06:48 67.97166 -155.74512 35931 ft 514 kts 243°
2026-05-09 06:48 67.94302 -155.88393 35932 ft 514 kts 243°
2026-05-09 06:49 67.90843 -156.05031 35927 ft 514 kts 243°
2026-05-09 06:49 67.87363 -156.21643 35925 ft 514 kts 243°
2026-05-09 06:50 67.83867 -156.38196 35924 ft 514 kts 243°
2026-05-09 06:50 67.80354 -156.54704 35919 ft 514 kts 243°
2026-05-09 06:51 67.76824 -156.71166 35913 ft 515 kts 243°
2026-05-09 06:51 67.73273 -156.87598 35909 ft 515 kts 243°
2026-05-09 06:52 67.69732 -157.03858 35904 ft 515 kts 243°
2026-05-09 06:52 67.66145 -157.20201 35910 ft 516 kts 242°
2026-05-09 06:53 67.62542 -157.36498 35910 ft 516 kts 242°
2026-05-09 06:53 67.58919 -157.52762 35913 ft 516 kts 242°
2026-05-09 06:54 67.55276 -157.68995 35918 ft 516 kts 242°
2026-05-09 06:54 67.51636 -157.85090 35925 ft 517 kts 242°
2026-05-09 06:55 67.47956 -158.01240 35926 ft 518 kts 242°
2026-05-09 06:55 67.44261 -158.17337 35921 ft 518 kts 242°
2026-05-09 06:56 67.40539 -158.33430 35915 ft 518 kts 242°
2026-05-09 06:56 67.36805 -158.49455 35922 ft 518 kts 242°
2026-05-09 06:57 67.33073 -158.65355 35909 ft 519 kts 242°
2026-05-09 06:57 67.29306 -158.81288 35904 ft 519 kts 242°
2026-05-09 06:58 67.25515 -158.97207 35894 ft 519 kts 241°
2026-05-09 06:58 67.21711 -159.13064 35889 ft 520 kts 241°
2026-05-09 06:59 67.17882 -159.28908 35888 ft 520 kts 241°
2026-05-09 06:59 67.14037 -159.44706 35881 ft 521 kts 241°
2026-05-09 07:00 67.10169 -159.60478 35878 ft 521 kts 241°
2026-05-09 07:00 67.06313 -159.76094 35879 ft 521 kts 241°
2026-05-09 07:01 67.02416 -159.91761 35879 ft 522 kts 241°
2026-05-09 07:01 66.98202 -160.06937 35886 ft 525 kts 235°
2026-05-09 07:02 66.93667 -160.21512 35882 ft 524 kts 234°
2026-05-09 07:02 66.89074 -160.35950 35879 ft 524 kts 234°
2026-05-09 07:03 66.84468 -160.50342 35876 ft 524 kts 234°
2026-05-09 07:03 66.79862 -160.64679 35859 ft 524 kts 234°
2026-05-09 07:04 66.75237 -160.78997 35861 ft 524 kts 234°
2026-05-09 07:04 66.70628 -160.93176 35860 ft 525 kts 234°
2026-05-09 07:05 66.65979 -161.07383 35856 ft 525 kts 234°
2026-05-09 07:05 66.61307 -161.21568 35861 ft 525 kts 234°
2026-05-09 07:06 66.56651 -161.35609 35864 ft 525 kts 234°
2026-05-09 07:06 66.51948 -161.49702 35863 ft 525 kts 234°
2026-05-09 07:07 66.47241 -161.63717 35868 ft 526 kts 233°
2026-05-09 07:07 66.42539 -161.77629 35879 ft 526 kts 233°
2026-05-09 07:08 66.37800 -161.91556 35867 ft 526 kts 233°
2026-05-09 07:08 66.33036 -162.05473 35875 ft 526 kts 233°
2026-05-09 07:09 66.28266 -162.19315 35879 ft 527 kts 233°
2026-05-09 07:09 66.23514 -162.33019 35882 ft 527 kts 233°
2026-05-09 07:10 66.18715 -162.46771 35871 ft 528 kts 233°
2026-05-09 07:10 66.13897 -162.60490 35877 ft 528 kts 233°
2026-05-09 07:11 66.09064 -162.74166 35873 ft 528 kts 233°
2026-05-09 07:11 66.04221 -162.87782 35878 ft 528 kts 233°
2026-05-09 07:12 65.99390 -163.01282 35875 ft 528 kts 233°
2026-05-09 07:12 65.94517 -163.14811 35882 ft 529 kts 233°
2026-05-09 07:13 65.89638 -163.28275 35889 ft 529 kts 233°
2026-05-09 07:13 65.84736 -163.41719 35898 ft 529 kts 233°
2026-05-09 07:14 65.79821 -163.55116 35906 ft 529 kts 233°
2026-05-09 07:14 65.74896 -163.68458 35911 ft 530 kts 233°
2026-05-09 07:15 65.69959 -163.81747 35913 ft 530 kts 233°
2026-05-09 07:15 65.65002 -163.95010 35914 ft 530 kts 233°
2026-05-09 07:16 65.60064 -164.08141 35915 ft 530 kts 233°
2026-05-09 07:16 65.55087 -164.21292 35917 ft 530 kts 233°
2026-05-09 07:17 65.50100 -164.34393 35918 ft 530 kts 233°
2026-05-09 07:17 65.45089 -164.47474 35918 ft 531 kts 232°
2026-05-09 07:18 65.40094 -164.60437 35921 ft 531 kts 233°
2026-05-09 07:18 65.35062 -164.73415 35924 ft 531 kts 233°
2026-05-09 07:19 65.30009 -164.86373 35924 ft 532 kts 232°
2026-05-09 07:19 65.24950 -164.99267 35925 ft 532 kts 232°
2026-05-09 07:20 65.19879 -165.12114 35921 ft 532 kts 232°
2026-05-09 07:20 65.14818 -165.24858 35926 ft 532 kts 232°
2026-05-09 07:21 65.09718 -165.37626 35924 ft 532 kts 232°
2026-05-09 07:21 65.04605 -165.50349 35934 ft 532 kts 232°
2026-05-09 07:22 64.99483 -165.63018 35918 ft 532 kts 232°
2026-05-09 07:22 64.94349 -165.75643 35927 ft 533 kts 232°
2026-05-09 07:23 64.89203 -165.88225 35922 ft 532 kts 232°
2026-05-09 07:23 64.84080 -166.00671 35919 ft 532 kts 232°
2026-05-09 07:24 64.78919 -166.13140 35918 ft 532 kts 232°
2026-05-09 07:24 64.73755 -166.25547 35913 ft 532 kts 232°
2026-05-09 07:25 64.68575 -166.37921 35913 ft 532 kts 231°
2026-05-09 07:25 64.63389 -166.50233 35912 ft 532 kts 231°
2026-05-09 07:26 64.58188 -166.62504 35913 ft 531 kts 231°
2026-05-09 07:26 64.53017 -166.74638 35912 ft 531 kts 231°
2026-05-09 07:27 64.47809 -166.86793 35917 ft 531 kts 231°
2026-05-09 07:27 64.42595 -166.98893 35919 ft 530 kts 231°
2026-05-09 07:28 64.37368 -167.10950 35923 ft 530 kts 231°
2026-05-09 07:28 64.32132 -167.22962 35932 ft 530 kts 230°
2026-05-09 07:29 64.26892 -167.34915 35929 ft 530 kts 230°
2026-05-09 07:29 64.21673 -167.46752 35931 ft 530 kts 230°
2026-05-09 07:30 64.16420 -167.58600 35930 ft 529 kts 230°
2026-05-09 07:30 64.11160 -167.70399 35938 ft 529 kts 230°
2026-05-09 07:31 64.05887 -167.82159 35942 ft 529 kts 230°
2026-05-09 07:31 64.00611 -167.93861 35943 ft 528 kts 230°
2026-05-09 07:32 63.95330 -168.05510 35949 ft 528 kts 229°
2026-05-09 07:32 63.90046 -168.17099 35948 ft 527 kts 229°
2026-05-09 07:33 63.82112 -168.34383 35956 ft 527 kts 229°
2026-05-09 07:34 63.76819 -168.45837 35957 ft 526 kts 229°
2026-05-09 07:34 63.71517 -168.57244 35961 ft 526 kts 229°
2026-05-09 07:35 63.66254 -168.68510 35961 ft 525 kts 228°
2026-05-09 07:35 63.60936 -168.79831 35963 ft 525 kts 228°
2026-05-09 07:36 63.55617 -168.91092 35970 ft 525 kts 228°
2026-05-09 07:36 63.50300 -169.02287 35972 ft 524 kts 228°
2026-05-09 07:37 63.44973 -169.13445 35970 ft 524 kts 227°
2026-05-09 07:37 63.40549 -169.22668 35974 ft 523 kts 227°
2026-05-09 07:38 63.35267 -169.33806 35976 ft 521 kts 231°
2026-05-09 07:38 63.30210 -169.48558 35972 ft 515 kts 240°
2026-05-09 07:39 63.26855 -169.59525 35976 ft 515 kts 241°
2026-05-09 07:39 63.22850 -169.72711 35977 ft 515 kts 241°
2026-05-09 07:40 63.18815 -169.85835 35976 ft 515 kts 240°
2026-05-09 07:40 63.14749 -169.98902 35983 ft 515 kts 240°
2026-05-09 07:41 63.10668 -170.11925 35981 ft 515 kts 240°
2026-05-09 07:41 63.06578 -170.24902 35990 ft 514 kts 240°
2026-05-09 07:42 63.02499 -170.37775 35987 ft 514 kts 239°
2026-05-09 07:42 62.98397 -170.50650 35993 ft 514 kts 239°
2026-05-09 07:43 62.94275 -170.63515 35999 ft 514 kts 239°
2026-05-09 07:43 62.90142 -170.76339 35992 ft 514 kts 239°
2026-05-09 07:44 62.85998 -170.89126 35993 ft 514 kts 239°
2026-05-09 07:44 62.81874 -171.01781 35993 ft 513 kts 238°
2026-05-09 07:45 62.77716 -171.14471 35999 ft 513 kts 238°
2026-05-09 07:45 62.73545 -171.27126 35997 ft 513 kts 238°
2026-05-09 07:46 62.69364 -171.39744 36002 ft 513 kts 238°
2026-05-09 07:46 62.65176 -171.52314 36003 ft 513 kts 238°
2026-05-09 07:47 62.61006 -171.64763 36005 ft 512 kts 238°
2026-05-09 07:47 62.56808 -171.77271 36006 ft 512 kts 237°
2026-05-09 07:48 62.52599 -171.89706 36006 ft 512 kts 237°
2026-05-09 07:48 62.48374 -172.02116 36005 ft 511 kts 237°
2026-05-09 07:49 62.44140 -172.14496 36012 ft 511 kts 237°
2026-05-09 07:49 62.39906 -172.26813 36013 ft 511 kts 237°
2026-05-09 07:50 62.35661 -172.39097 36016 ft 511 kts 237°
2026-05-09 07:50 62.31429 -172.51279 36018 ft 510 kts 236°
2026-05-09 07:51 62.27170 -172.63472 36019 ft 510 kts 236°
2026-05-09 07:51 62.22898 -172.75638 36020 ft 510 kts 236°
2026-05-09 07:52 62.18614 -172.87773 36022 ft 509 kts 236°
2026-05-09 07:52 62.14332 -172.99839 36026 ft 509 kts 236°
2026-05-09 07:53 62.10066 -173.11797 36029 ft 509 kts 236°
2026-05-09 07:53 62.05768 -173.23780 36029 ft 509 kts 235°
2026-05-09 07:54 62.01458 -173.35736 36038 ft 508 kts 235°
2026-05-09 07:54 61.97143 -173.47640 36038 ft 508 kts 235°
2026-05-09 07:55 61.92815 -173.59523 36036 ft 508 kts 235°
2026-05-09 07:55 61.88474 -173.71376 36034 ft 508 kts 234°
2026-05-09 07:56 61.84132 -173.83172 36038 ft 508 kts 234°
2026-05-09 07:56 61.79780 -173.94934 36037 ft 508 kts 234°
2026-05-09 07:57 61.75417 -174.06667 36043 ft 508 kts 234°
2026-05-09 07:57 61.71068 -174.18301 36036 ft 507 kts 234°
2026-05-09 07:58 61.66684 -174.29969 36044 ft 507 kts 234°
2026-05-09 07:58 61.62289 -174.41609 36044 ft 507 kts 233°
2026-05-09 07:59 61.57891 -174.53201 36038 ft 507 kts 233°
2026-05-09 07:59 61.53470 -174.64780 36049 ft 507 kts 233°
2026-05-09 08:00 61.49062 -174.76227 36045 ft 507 kts 233°
2026-05-09 08:00 61.44619 -174.87713 36046 ft 507 kts 233°
2026-05-09 08:01 61.40174 -174.99158 36048 ft 507 kts 233°
2026-05-09 08:01 61.35728 -175.10553 36048 ft 507 kts 233°
2026-05-09 08:02 61.31260 -175.21946 36041 ft 507 kts 233°
2026-05-09 08:02 61.26785 -175.33300 36048 ft 507 kts 232°
2026-05-09 08:03 61.22296 -175.44633 36045 ft 507 kts 232°
2026-05-09 08:03 61.17838 -175.55832 36044 ft 507 kts 232°
2026-05-09 08:04 61.13337 -175.67087 36047 ft 506 kts 232°
2026-05-09 08:04 61.08828 -175.78302 36051 ft 506 kts 232°
2026-05-09 08:05 61.04349 -175.89390 36050 ft 506 kts 232°
2026-05-09 08:05 60.99835 -176.00511 36052 ft 505 kts 231°
2026-05-09 08:06 60.95312 -176.11599 36052 ft 505 kts 231°
2026-05-09 08:06 60.90781 -176.22654 36048 ft 505 kts 231°
2026-05-09 08:07 60.86243 -176.33672 36058 ft 505 kts 231°
2026-05-09 08:07 60.81699 -176.44651 36058 ft 504 kts 231°
2026-05-09 08:08 60.77179 -176.55520 36051 ft 504 kts 231°
2026-05-09 08:08 60.72624 -176.66421 36053 ft 504 kts 231°
2026-05-09 08:09 60.68063 -176.77284 36056 ft 504 kts 230°
2026-05-09 08:09 60.63483 -176.88141 36057 ft 503 kts 230°
2026-05-09 08:10 60.58901 -176.98952 36061 ft 503 kts 230°
2026-05-09 08:10 60.54344 -177.09652 36048 ft 503 kts 230°
2026-05-09 08:11 60.49750 -177.20389 36059 ft 503 kts 230°
2026-05-09 08:11 60.45149 -177.31092 36051 ft 503 kts 230°
2026-05-09 08:12 60.38247 -177.47055 36049 ft 502 kts 229°
2026-05-09 08:12 60.33656 -177.57610 36050 ft 502 kts 229°
2026-05-09 08:13 60.29036 -177.68182 36051 ft 502 kts 229°
2026-05-09 08:13 60.24406 -177.78730 36051 ft 502 kts 229°
2026-05-09 08:14 60.19773 -177.89234 36367 ft 499 kts 229°
2026-05-09 08:14 60.17493 -177.94453 36689 ft 496 kts 230°
2026-05-09 08:14 60.15259 -177.99739 36930 ft 495 kts 231°
2026-05-09 08:15 60.13052 -178.05042 37094 ft 495 kts 231°
2026-05-09 08:15 60.10846 -178.10355 37262 ft 495 kts 231°
2026-05-09 08:15 60.08666 -178.15584 37428 ft 495 kts 231°
2026-05-09 08:15 60.06426 -178.20923 37609 ft 495 kts 231°
2026-05-09 08:16 60.04236 -178.26114 37773 ft 494 kts 231°
2026-05-09 08:16 60.02007 -178.31373 37931 ft 494 kts 230°
2026-05-09 08:16 59.99777 -178.36614 38040 ft 495 kts 231°
2026-05-09 08:16 59.97535 -178.41874 38042 ft 498 kts 230°
2026-05-09 08:17 59.93012 -178.52452 38037 ft 502 kts 230°
2026-05-09 08:17 59.88475 -178.63020 38033 ft 501 kts 230°
2026-05-09 08:18 59.83962 -178.73479 38029 ft 501 kts 230°
2026-05-09 08:18 59.79404 -178.83994 38034 ft 501 kts 230°
2026-05-09 08:19 59.74839 -178.94476 38032 ft 502 kts 230°
2026-05-09 08:19 59.70270 -179.04921 38018 ft 502 kts 230°
2026-05-09 08:20 59.65682 -179.15360 38023 ft 502 kts 230°
2026-05-09 08:20 59.61085 -179.25773 38016 ft 502 kts 229°
2026-05-09 08:21 59.56510 -179.36090 38015 ft 503 kts 229°
2026-05-09 08:21 59.51899 -179.46441 38017 ft 502 kts 229°
2026-05-09 08:22 59.47274 -179.56776 38019 ft 502 kts 229°
2026-05-09 08:22 59.42648 -179.67068 38012 ft 502 kts 229°
2026-05-09 08:23 59.38022 -179.77314 38010 ft 501 kts 229°
2026-05-09 08:23 59.33412 -179.87484 38009 ft 501 kts 229°
2026-05-09 08:24 59.28774 -179.97662 38004 ft 501 kts 229°
2026-05-09 08:24 59.24130 179.92192 38001 ft 500 kts 229°
2026-05-09 08:25 59.19485 179.82081 38001 ft 500 kts 229°
2026-05-09 08:25 59.14837 179.72009 38001 ft 499 kts 229°
2026-05-09 08:26 59.10186 179.61978 37997 ft 499 kts 228°
2026-05-09 08:26 59.05527 179.51974 37991 ft 498 kts 228°
2026-05-09 08:27 59.00900 179.42084 37992 ft 498 kts 228°
2026-05-09 08:27 58.96238 179.32161 37993 ft 497 kts 228°
2026-05-09 08:28 58.91570 179.22262 37987 ft 497 kts 228°
2026-05-09 08:28 58.87686 179.14065 37986 ft 496 kts 228°
2026-05-09 08:29 58.83016 179.04242 37984 ft 496 kts 227°
2026-05-09 08:29 58.78334 178.94437 37984 ft 496 kts 227°
2026-05-09 08:30 58.73656 178.84685 37979 ft 495 kts 227°
2026-05-09 08:30 58.68977 178.74969 37976 ft 495 kts 227°
2026-05-09 08:31 58.64291 178.65282 37972 ft 494 kts 227°
2026-05-09 08:31 58.59607 178.55635 37976 ft 494 kts 227°
2026-05-09 08:32 58.54936 178.46062 37969 ft 493 kts 227°
2026-05-09 08:33 58.47890 178.31682 37964 ft 493 kts 227°
2026-05-09 08:33 58.43190 178.22149 37963 ft 493 kts 227°
2026-05-09 08:34 58.38482 178.12639 37959 ft 492 kts 227°
2026-05-09 08:34 58.33772 178.03165 37954 ft 492 kts 227°
2026-05-09 08:35 58.29084 177.93773 37953 ft 492 kts 226°
2026-05-09 08:35 58.24371 177.84369 37949 ft 492 kts 226°
2026-05-09 08:36 58.19645 177.74976 37946 ft 492 kts 226°
2026-05-09 08:36 58.14910 177.65601 37942 ft 491 kts 226°
2026-05-09 08:37 58.10175 177.56271 37937 ft 491 kts 226°
2026-05-09 08:37 58.05432 177.46963 37934 ft 492 kts 226°
2026-05-09 08:38 58.00675 177.37668 37931 ft 492 kts 226°
2026-05-09 08:38 57.95942 177.28449 37929 ft 492 kts 226°
2026-05-09 08:39 57.91166 177.19186 37924 ft 492 kts 226°
2026-05-09 08:39 57.86387 177.09959 37918 ft 492 kts 226°
2026-05-09 08:40 57.81625 177.00800 37914 ft 492 kts 226°
2026-05-09 08:40 57.76829 176.91613 37910 ft 492 kts 226°
2026-05-09 08:41 57.72025 176.82453 37907 ft 492 kts 226°
2026-05-09 08:41 57.67219 176.73320 37908 ft 492 kts 226°
2026-05-09 08:42 57.62441 176.64276 37902 ft 492 kts 226°
2026-05-09 08:42 57.57622 176.55194 37899 ft 492 kts 226°
2026-05-09 08:43 57.52798 176.46136 37893 ft 492 kts 226°
2026-05-09 08:43 57.47977 176.37103 37895 ft 492 kts 226°
2026-05-09 08:44 57.43197 176.28000 37885 ft 491 kts 227°
2026-05-09 08:44 57.38424 176.18898 37883 ft 491 kts 226°
2026-05-09 08:45 57.33642 176.09845 37880 ft 491 kts 226°
2026-05-09 08:45 57.28850 176.00826 37878 ft 491 kts 226°
2026-05-09 08:46 57.24085 175.91898 37884 ft 491 kts 226°
2026-05-09 08:46 57.19280 175.82929 37872 ft 490 kts 226°
2026-05-09 08:47 57.14472 175.73990 37870 ft 490 kts 226°
2026-05-09 08:47 57.09695 175.65141 37872 ft 490 kts 226°
2026-05-09 08:48 57.04883 175.56264 37870 ft 490 kts 226°
2026-05-09 08:48 57.00047 175.47378 37868 ft 491 kts 226°
2026-05-09 08:49 56.95207 175.38516 37872 ft 492 kts 226°
2026-05-09 08:49 56.90354 175.29667 37870 ft 492 kts 226°
2026-05-09 08:50 56.85529 175.20901 37871 ft 492 kts 226°
2026-05-09 08:50 56.80673 175.12113 37871 ft 491 kts 226°
2026-05-09 08:51 56.75806 175.03341 37872 ft 491 kts 226°
2026-05-09 08:51 56.70930 174.94584 37872 ft 491 kts 226°
2026-05-09 08:52 56.66047 174.85851 37874 ft 491 kts 226°
2026-05-09 08:52 56.61169 174.77158 37880 ft 491 kts 226°
2026-05-09 08:53 56.56317 174.68546 37881 ft 491 kts 226°
2026-05-09 08:53 56.51428 174.59900 37882 ft 491 kts 226°
2026-05-09 08:54 56.46537 174.51284 37882 ft 490 kts 226°
2026-05-09 08:54 56.41635 174.42682 37889 ft 490 kts 226°
2026-05-09 08:55 56.36737 174.34119 37888 ft 490 kts 226°
2026-05-09 08:55 56.31835 174.25581 37892 ft 490 kts 226°
2026-05-09 08:56 56.26926 174.17062 37895 ft 490 kts 226°
2026-05-09 08:56 56.22014 174.08570 37897 ft 490 kts 226°
2026-05-09 08:57 56.17127 174.00152 37899 ft 490 kts 226°
2026-05-09 08:57 56.12203 173.91704 37904 ft 490 kts 226°
2026-05-09 08:58 56.07276 173.83282 37903 ft 490 kts 226°
2026-05-09 08:58 56.02339 173.74874 37903 ft 489 kts 226°
2026-05-09 08:59 55.97392 173.66479 37905 ft 489 kts 226°
2026-05-09 08:59 55.92485 173.58183 37911 ft 489 kts 226°
2026-05-09 09:00 55.87544 173.49861 37911 ft 489 kts 226°
2026-05-09 09:00 55.82588 173.41543 37916 ft 489 kts 226°
2026-05-09 09:01 55.77628 173.33250 37916 ft 488 kts 226°
2026-05-09 09:01 55.72678 173.25003 37916 ft 488 kts 226°
2026-05-09 09:02 55.67756 173.16833 37918 ft 488 kts 226°
2026-05-09 09:02 55.62787 173.08616 37920 ft 488 kts 226°
2026-05-09 09:03 55.57818 173.00428 37921 ft 487 kts 226°
2026-05-09 09:03 55.52852 172.92275 37920 ft 487 kts 226°
2026-05-09 09:04 55.47883 172.84146 37920 ft 487 kts 226°
2026-05-09 09:04 55.42909 172.76037 37917 ft 487 kts 226°
2026-05-09 09:05 55.37952 172.67987 37922 ft 487 kts 226°
2026-05-09 09:05 55.32993 172.59962 37922 ft 486 kts 226°
2026-05-09 09:06 55.28004 172.51915 37923 ft 486 kts 226°
2026-05-09 09:06 55.23018 172.43903 37916 ft 486 kts 226°
2026-05-09 09:07 55.18030 172.35917 37922 ft 485 kts 226°
2026-05-09 09:07 55.13041 172.27956 37928 ft 485 kts 226°
2026-05-09 09:08 55.08080 172.20070 37925 ft 484 kts 226°
2026-05-09 09:08 55.03092 172.12167 37922 ft 484 kts 226°
2026-05-09 09:09 54.98100 172.04286 37920 ft 483 kts 226°
2026-05-09 09:09 54.93236 171.96245 37921 ft 479 kts 233°
2026-05-09 09:10 54.88932 171.87446 37932 ft 478 kts 235°
2026-05-09 09:10 54.84741 171.78550 37930 ft 478 kts 235°
2026-05-09 09:11 54.80535 171.69627 37928 ft 477 kts 235°
2026-05-09 09:11 54.76316 171.60749 37925 ft 477 kts 235°
2026-05-09 09:12 54.72079 171.51889 37926 ft 476 kts 235°
2026-05-09 09:12 54.67850 171.43081 37927 ft 475 kts 235°
2026-05-09 09:13 54.63627 171.34317 37924 ft 474 kts 235°
2026-05-09 09:13 54.59404 171.25581 37924 ft 473 kts 235°
2026-05-09 09:14 54.55208 171.16934 37922 ft 472 kts 235°
2026-05-09 09:14 54.50991 171.08272 37924 ft 472 kts 235°
2026-05-09 09:15 54.46773 170.99640 37924 ft 471 kts 235°
2026-05-09 09:15 54.42557 170.91040 37923 ft 470 kts 235°
2026-05-09 09:16 54.38344 170.82479 37921 ft 469 kts 235°
2026-05-09 09:16 54.32046 170.69735 37924 ft 468 kts 235°
2026-05-09 09:17 54.27836 170.61254 37923 ft 467 kts 235°
2026-05-09 09:17 54.23624 170.52796 37925 ft 466 kts 235°
2026-05-09 09:18 54.20120 170.45783 37922 ft 466 kts 235°
2026-05-09 09:18 54.15906 170.37374 37927 ft 465 kts 235°
2026-05-09 09:19 54.11692 170.28993 37927 ft 465 kts 235°
2026-05-09 09:19 54.07478 170.20643 37927 ft 464 kts 235°
2026-05-09 09:20 54.03266 170.12325 37931 ft 464 kts 235°
2026-05-09 09:20 53.99043 170.04014 37929 ft 463 kts 235°
2026-05-09 09:21 53.94826 169.95742 37931 ft 463 kts 235°
2026-05-09 09:21 53.90633 169.87544 37931 ft 462 kts 235°
2026-05-09 09:22 53.86413 169.79323 37935 ft 462 kts 235°
2026-05-09 09:22 53.82190 169.71122 37931 ft 461 kts 234°
2026-05-09 09:23 53.77976 169.62966 37933 ft 460 kts 234°
2026-05-09 09:23 53.73756 169.54824 37934 ft 459 kts 234°
2026-05-09 09:24 53.69536 169.46711 37934 ft 459 kts 234°
2026-05-09 09:24 53.65349 169.38686 37931 ft 458 kts 234°
2026-05-09 09:25 53.61692 169.30063 37925 ft 448 kts 245°
2026-05-09 09:25 53.58670 169.20870 37932 ft 449 kts 247°
2026-05-09 09:26 53.55734 169.11596 37933 ft 448 kts 247°
2026-05-09 09:26 53.52792 169.02358 37931 ft 448 kts 247°
2026-05-09 09:27 53.49835 168.93173 37936 ft 447 kts 247°
2026-05-09 09:27 53.46864 168.84004 37933 ft 446 kts 246°
2026-05-09 09:28 53.43890 168.74865 37934 ft 445 kts 246°
2026-05-09 09:28 53.40930 168.65800 37935 ft 445 kts 246°
2026-05-09 09:29 53.37949 168.56703 37930 ft 444 kts 246°
2026-05-09 09:29 53.34985 168.47689 37933 ft 443 kts 246°
2026-05-09 09:30 53.32005 168.38661 37932 ft 442 kts 246°
2026-05-09 09:30 53.29026 168.29673 37935 ft 441 kts 246°
2026-05-09 09:31 53.26056 168.20773 37932 ft 440 kts 246°
2026-05-09 09:32 53.21574 168.07408 37931 ft 439 kts 246°
2026-05-09 09:32 53.18586 167.98533 37925 ft 438 kts 246°
2026-05-09 09:33 53.15595 167.89681 37926 ft 437 kts 246°
2026-05-09 09:33 53.12604 167.80859 37928 ft 437 kts 246°
2026-05-09 09:34 53.09613 167.72070 37930 ft 436 kts 246°
2026-05-09 09:34 53.06638 167.63359 37929 ft 435 kts 246°
2026-05-09 09:36 52.94657 167.28583 37923 ft 432 kts 246°
2026-05-09 09:37 52.91682 167.20022 37923 ft 431 kts 246°
2026-05-09 09:37 52.88685 167.11425 37924 ft 430 kts 246°
2026-05-09 09:38 52.85683 167.02847 37921 ft 430 kts 246°
2026-05-09 09:38 52.82684 166.94305 37924 ft 429 kts 246°
2026-05-09 09:39 52.79683 166.85786 37924 ft 428 kts 246°
2026-05-09 09:39 52.76683 166.77301 37926 ft 427 kts 246°
2026-05-09 09:40 52.73682 166.68842 37923 ft 426 kts 246°
2026-05-09 09:40 52.70707 166.60483 37927 ft 425 kts 246°
2026-05-09 09:41 52.67712 166.52098 37921 ft 423 kts 246°
2026-05-09 09:41 52.64726 166.43764 37920 ft 422 kts 245°
2026-05-09 09:42 52.61734 166.35443 37922 ft 421 kts 245°
2026-05-09 09:42 52.58746 166.27161 37918 ft 420 kts 245°
2026-05-09 09:43 52.55758 166.18904 37919 ft 419 kts 245°
2026-05-09 09:43 52.52773 166.10681 37919 ft 418 kts 245°
2026-05-09 09:44 52.49806 166.02535 37916 ft 418 kts 245°
2026-05-09 09:44 52.46823 165.94374 37915 ft 417 kts 245°
2026-05-09 09:45 52.43835 165.86222 37913 ft 416 kts 245°
2026-05-09 09:45 52.40846 165.78096 37915 ft 416 kts 245°
2026-05-09 09:46 52.37854 165.69987 37914 ft 415 kts 245°
2026-05-09 09:46 52.34865 165.61911 37907 ft 415 kts 245°
2026-05-09 09:47 52.31884 165.53885 37910 ft 415 kts 245°
2026-05-09 09:47 52.28885 165.45834 37909 ft 414 kts 244°
2026-05-09 09:48 52.25883 165.37801 37913 ft 414 kts 244°
2026-05-09 09:48 52.22877 165.29783 37906 ft 413 kts 244°
2026-05-09 09:49 52.19891 165.21842 37904 ft 413 kts 244°
2026-05-09 09:49 52.16879 165.13857 37901 ft 412 kts 244°
2026-05-09 09:50 52.13873 165.05914 37903 ft 412 kts 244°
2026-05-09 09:50 52.10861 164.97981 37902 ft 411 kts 244°
2026-05-09 09:51 52.07854 164.90083 37902 ft 411 kts 244°
2026-05-09 09:51 52.04844 164.82204 37898 ft 410 kts 244°
2026-05-09 09:52 52.01835 164.74351 37892 ft 409 kts 244°
2026-05-09 09:52 51.98840 164.66558 37894 ft 408 kts 244°
2026-05-09 09:53 51.95831 164.58752 37894 ft 408 kts 244°
2026-05-09 09:53 51.92816 164.50957 37891 ft 407 kts 244°
2026-05-09 09:54 51.89827 164.43251 37893 ft 406 kts 244°
2026-05-09 09:54 51.86823 164.35531 37892 ft 405 kts 243°
2026-05-09 09:55 51.83820 164.27833 37891 ft 404 kts 243°
2026-05-09 09:55 51.80814 164.20154 37885 ft 403 kts 243°
2026-05-09 09:56 51.77818 164.12521 37884 ft 402 kts 243°
2026-05-09 09:56 51.74823 164.04915 37883 ft 401 kts 243°
2026-05-09 09:57 51.71826 163.97326 37880 ft 400 kts 243°
2026-05-09 09:57 51.68850 163.89813 37878 ft 399 kts 243°
2026-05-09 09:58 51.65852 163.82268 37876 ft 398 kts 243°
2026-05-09 09:58 51.62866 163.74772 37867 ft 397 kts 243°
2026-05-09 09:59 51.59879 163.67295 37864 ft 397 kts 243°
2026-05-09 09:59 51.56914 163.59895 37880 ft 396 kts 243°
2026-05-09 10:00 51.53929 163.52464 37855 ft 395 kts 243°
2026-05-09 10:00 51.50942 163.45050 37866 ft 395 kts 243°
2026-05-09 10:01 51.47953 163.37653 37865 ft 394 kts 243°
2026-05-09 10:01 51.44966 163.30284 37866 ft 394 kts 243°
2026-05-09 10:02 51.41992 163.22966 37862 ft 394 kts 242°
2026-05-09 10:02 51.38994 163.15608 37855 ft 394 kts 242°
2026-05-09 10:03 51.35988 163.08254 37856 ft 395 kts 242°
2026-05-09 10:03 51.32974 163.00900 37856 ft 396 kts 242°
2026-05-09 10:04 51.29946 162.93534 37848 ft 396 kts 242°
2026-05-09 10:04 51.26907 162.86163 37845 ft 397 kts 242°
2026-05-09 10:05 51.23887 162.78857 37841 ft 397 kts 242°
2026-05-09 10:05 51.20836 162.71498 37840 ft 397 kts 242°
2026-05-09 10:06 51.17778 162.64142 37842 ft 398 kts 242°
2026-05-09 10:06 51.15235 162.58043 37837 ft 398 kts 242°
2026-05-09 10:07 51.11648 162.49462 37836 ft 398 kts 242°
2026-05-09 10:07 51.08595 162.42180 37836 ft 398 kts 242°
2026-05-09 10:08 51.05517 162.34861 37836 ft 398 kts 241°
2026-05-09 10:08 51.02955 162.28783 37832 ft 398 kts 241°
2026-05-09 10:09 50.99866 162.21474 37827 ft 398 kts 241°
2026-05-09 10:09 50.96775 162.14183 37822 ft 398 kts 241°
2026-05-09 10:10 50.93675 162.06887 37824 ft 398 kts 241°
2026-05-09 10:10 50.90577 161.99620 37819 ft 398 kts 241°
2026-05-09 10:11 50.87474 161.92359 37818 ft 397 kts 241°
2026-05-09 10:11 50.84389 161.85160 37813 ft 397 kts 241°
2026-05-09 10:12 50.81284 161.77937 37809 ft 397 kts 241°
2026-05-09 10:12 50.78174 161.70721 37809 ft 397 kts 241°
2026-05-09 10:13 50.75068 161.63533 37809 ft 396 kts 240°
2026-05-09 10:13 50.71958 161.56357 37802 ft 396 kts 240°
2026-05-09 10:14 50.68848 161.49200 37799 ft 395 kts 240°
2026-05-09 10:14 50.65734 161.42051 37801 ft 395 kts 240°
2026-05-09 10:15 50.62635 161.34960 37798 ft 395 kts 240°
2026-05-09 10:15 50.59521 161.27852 37794 ft 394 kts 240°
2026-05-09 10:16 50.56402 161.20751 37792 ft 394 kts 240°
2026-05-09 10:16 50.53280 161.13664 37789 ft 394 kts 240°
2026-05-09 10:17 50.50157 161.06592 37784 ft 393 kts 240°
2026-05-09 10:17 50.47052 160.99583 37786 ft 393 kts 240°
2026-05-09 10:18 50.43930 160.92551 37783 ft 393 kts 240°
2026-05-09 10:18 50.40806 160.85534 37781 ft 392 kts 240°
2026-05-09 10:19 50.37675 160.78521 37774 ft 392 kts 240°
2026-05-09 10:19 50.34551 160.71541 37775 ft 391 kts 240°
2026-05-09 10:20 50.31424 160.64573 37775 ft 391 kts 240°
2026-05-09 10:20 50.28309 160.57651 37767 ft 391 kts 240°
2026-05-09 10:21 50.25176 160.50706 37766 ft 390 kts 240°
2026-05-09 10:21 50.22038 160.43771 37763 ft 390 kts 240°
2026-05-09 10:22 50.18900 160.36852 37759 ft 390 kts 239°
2026-05-09 10:22 50.15750 160.29954 37757 ft 390 kts 239°
2026-05-09 10:23 50.12616 160.23121 37750 ft 390 kts 239°
2026-05-09 10:23 50.09460 160.16257 37748 ft 390 kts 239°
2026-05-09 10:24 50.06301 160.09398 37746 ft 389 kts 239°
2026-05-09 10:24 50.03140 160.02551 37743 ft 389 kts 239°
2026-05-09 10:25 49.99975 159.95713 37738 ft 389 kts 239°
2026-05-09 10:25 49.96827 159.88931 37734 ft 389 kts 239°
2026-05-09 10:26 49.93658 159.82122 37732 ft 388 kts 239°
2026-05-09 10:26 49.90492 159.75336 37725 ft 388 kts 239°
2026-05-09 10:27 49.87323 159.68559 37721 ft 388 kts 239°
2026-05-09 10:27 49.84145 159.61783 37712 ft 388 kts 239°
2026-05-09 10:28 49.80966 159.55020 37712 ft 388 kts 239°
2026-05-09 10:28 49.77785 159.48271 37703 ft 388 kts 239°
2026-05-09 10:29 49.74621 159.41574 37706 ft 388 kts 239°
2026-05-09 10:29 49.71432 159.34844 37696 ft 388 kts 239°
2026-05-09 10:30 49.68209 159.28156 37693 ft 388 kts 238°
2026-05-09 10:30 49.64940 159.21523 37683 ft 388 kts 238°
2026-05-09 10:31 49.61672 159.14901 37696 ft 387 kts 238°
2026-05-09 10:31 49.58431 159.08327 37673 ft 387 kts 238°
2026-05-09 10:32 49.55172 159.01721 37684 ft 387 kts 238°
2026-05-09 10:32 49.51909 158.95125 37670 ft 387 kts 238°
2026-05-09 10:33 49.48645 158.88543 37660 ft 386 kts 238°
2026-05-09 10:33 49.45397 158.82010 37658 ft 386 kts 238°
2026-05-09 10:34 49.42129 158.75453 37648 ft 386 kts 238°
2026-05-09 10:34 49.37215 158.65626 37637 ft 386 kts 238°
2026-05-09 10:35 49.33966 158.59147 37636 ft 385 kts 238°
2026-05-09 10:35 49.30693 158.52636 37626 ft 385 kts 238°
2026-05-09 10:36 49.27417 158.46138 37622 ft 385 kts 238°
2026-05-09 10:36 49.24139 158.39647 37619 ft 385 kts 238°
2026-05-09 10:37 49.20858 158.33169 37608 ft 385 kts 238°
2026-05-09 10:37 49.17578 158.26708 37602 ft 385 kts 238°
2026-05-09 10:38 49.14313 158.20293 37593 ft 385 kts 238°
2026-05-09 10:38 49.11025 158.13846 37584 ft 384 kts 238°
2026-05-09 10:39 49.07737 158.07417 37584 ft 384 kts 238°
2026-05-09 10:39 49.04445 158.00994 37574 ft 384 kts 238°
2026-05-09 10:40 49.01147 157.94575 37566 ft 384 kts 238°
2026-05-09 10:40 48.97856 157.88186 37558 ft 383 kts 238°
2026-05-09 10:41 48.94578 157.81836 37544 ft 383 kts 238°
2026-05-09 10:41 48.91278 157.75461 37543 ft 383 kts 238°
2026-05-09 10:42 48.87984 157.69110 37533 ft 382 kts 238°
2026-05-09 10:42 48.84688 157.62770 37525 ft 382 kts 238°
2026-05-09 10:43 48.81392 157.56409 37546 ft 387 kts 232°
2026-05-09 10:43 48.78003 157.49938 37514 ft 396 kts 232°
2026-05-09 10:44 48.74538 157.43344 37507 ft 402 kts 232°
2026-05-09 10:44 48.71059 157.36719 37498 ft 402 kts 232°
2026-05-09 10:46 48.62334 157.20168 37482 ft 403 kts 231°
2026-05-09 10:46 48.58818 157.13528 37475 ft 404 kts 231°
2026-05-09 10:47 48.55319 157.06938 37473 ft 405 kts 231°
2026-05-09 10:47 48.51777 157.00284 37464 ft 406 kts 231°
2026-05-09 10:48 48.48235 156.93643 37459 ft 406 kts 231°
2026-05-09 10:48 48.44687 156.87010 37453 ft 407 kts 231°
2026-05-09 10:49 48.41152 156.80417 37444 ft 407 kts 231°
2026-05-09 10:49 48.37592 156.73793 37432 ft 407 kts 231°
2026-05-09 10:50 48.34022 156.67168 37421 ft 407 kts 230°
2026-05-09 10:50 48.30441 156.60539 37413 ft 408 kts 230°
2026-05-09 10:51 48.26878 156.53958 37405 ft 408 kts 230°
2026-05-09 10:51 48.23286 156.47342 37400 ft 409 kts 230°
2026-05-09 10:52 48.19687 156.40728 37389 ft 409 kts 230°
2026-05-09 10:52 48.16078 156.34112 37381 ft 410 kts 230°
2026-05-09 10:53 48.12453 156.27483 37373 ft 411 kts 230°
2026-05-09 10:53 48.08824 156.20863 37362 ft 412 kts 230°
2026-05-09 10:54 48.05206 156.14281 37359 ft 413 kts 230°
2026-05-09 10:54 48.02147 156.08727 37344 ft 413 kts 229°
2026-05-09 10:55 47.97867 156.00974 37337 ft 414 kts 229°
2026-05-09 10:55 47.94213 155.94377 37329 ft 415 kts 229°
2026-05-09 10:56 47.90525 155.87732 37319 ft 416 kts 229°
2026-05-09 10:56 47.87452 155.82205 37317 ft 417 kts 229°
2026-05-09 10:57 47.83737 155.75543 37304 ft 418 kts 229°
2026-05-09 10:57 47.80017 155.68886 37296 ft 419 kts 229°
2026-05-09 10:58 47.76285 155.62225 37287 ft 419 kts 229°
2026-05-09 10:58 47.72539 155.55556 37280 ft 421 kts 229°
2026-05-09 10:59 47.68776 155.48872 37271 ft 421 kts 229°
2026-05-09 10:59 47.65035 155.42244 37263 ft 422 kts 229°
2026-05-09 11:00 47.61252 155.35559 37257 ft 423 kts 229°
2026-05-09 11:00 47.57457 155.28868 37251 ft 424 kts 229°
2026-05-09 11:01 47.53652 155.22175 37239 ft 425 kts 229°
2026-05-09 11:01 47.49826 155.15463 37233 ft 426 kts 229°
2026-05-09 11:02 47.46028 155.08816 37228 ft 426 kts 229°
2026-05-09 11:02 47.42190 155.02118 37223 ft 427 kts 229°
2026-05-09 11:03 47.38336 154.95407 37208 ft 428 kts 229°
2026-05-09 11:03 47.34479 154.88708 37201 ft 428 kts 229°
2026-05-09 11:04 47.30635 154.82048 37195 ft 429 kts 229°
2026-05-09 11:04 47.26757 154.75344 37191 ft 429 kts 229°
2026-05-09 11:05 47.22880 154.68660 37186 ft 430 kts 229°
2026-05-09 11:05 47.18989 154.61967 37177 ft 430 kts 229°
2026-05-09 11:06 47.15116 154.55321 37170 ft 431 kts 229°
2026-05-09 11:06 47.11207 154.48630 37160 ft 432 kts 229°
2026-05-09 11:07 47.07288 154.41940 37155 ft 432 kts 229°
2026-05-09 11:07 47.03357 154.35246 37131 ft 432 kts 229°
2026-05-09 11:08 46.99449 154.28606 37128 ft 433 kts 229°
2026-05-09 11:08 46.95512 154.21934 37121 ft 433 kts 229°
2026-05-09 11:09 46.91566 154.15261 37124 ft 433 kts 229°
2026-05-09 11:09 46.87606 154.08584 37119 ft 434 kts 229°
2026-05-09 11:10 46.83661 154.01948 37108 ft 435 kts 229°
2026-05-09 11:10 46.79691 153.95284 37096 ft 435 kts 229°
2026-05-09 11:11 46.75703 153.88609 37084 ft 436 kts 229°
2026-05-09 11:11 46.71712 153.81944 37085 ft 436 kts 229°
2026-05-09 11:12 46.67711 153.75278 37072 ft 437 kts 229°
2026-05-09 11:12 46.63707 153.68623 37064 ft 437 kts 229°
2026-05-09 11:13 46.59693 153.61970 37062 ft 437 kts 229°
2026-05-09 11:13 46.55675 153.55325 37054 ft 438 kts 229°
2026-05-09 11:14 46.51674 153.48723 37046 ft 438 kts 229°
2026-05-09 11:14 46.47639 153.42083 37043 ft 438 kts 229°
2026-05-09 11:15 46.43592 153.35439 37036 ft 439 kts 229°
2026-05-09 11:15 46.39567 153.28849 37035 ft 439 kts 229°
2026-05-09 11:16 46.35518 153.22232 37033 ft 439 kts 229°
2026-05-09 11:16 46.31457 153.15613 37031 ft 440 kts 229°
2026-05-09 11:17 46.27382 153.08988 37032 ft 440 kts 229°
2026-05-09 11:17 46.23300 153.02366 37079 ft 441 kts 229°
2026-05-09 11:17 46.21260 152.99065 37312 ft 440 kts 229°
2026-05-09 11:18 46.19242 152.95822 37535 ft 439 kts 229°
2026-05-09 11:18 46.17194 152.92556 37726 ft 438 kts 229°
2026-05-09 11:18 46.15149 152.89305 37861 ft 438 kts 229°
2026-05-09 11:18 46.13099 152.86051 37992 ft 438 kts 229°
2026-05-09 11:19 46.11054 152.82808 38117 ft 437 kts 229°
2026-05-09 11:19 46.09005 152.79559 38249 ft 437 kts 229°
2026-05-09 11:19 46.06957 152.76312 38366 ft 437 kts 229°
2026-05-09 11:19 46.04912 152.73074 38484 ft 437 kts 229°
2026-05-09 11:20 46.02865 152.69834 38605 ft 437 kts 229°
2026-05-09 11:20 46.00821 152.66603 38724 ft 437 kts 229°
2026-05-09 11:20 45.98798 152.63409 38831 ft 437 kts 229°
2026-05-09 11:20 45.96726 152.60140 38942 ft 437 kts 229°
2026-05-09 11:21 45.94681 152.56919 39049 ft 437 kts 229°
2026-05-09 11:21 45.90594 152.50489 39126 ft 439 kts 229°
2026-05-09 11:22 45.86473 152.44021 39142 ft 439 kts 229°
2026-05-09 11:22 45.82344 152.37555 39160 ft 439 kts 229°
2026-05-09 11:23 45.78209 152.31094 39174 ft 440 kts 229°
2026-05-09 11:23 45.74062 152.24630 39192 ft 440 kts 229°
2026-05-09 11:24 45.69916 152.18184 39208 ft 440 kts 229°
2026-05-09 11:24 45.65791 152.11785 39218 ft 440 kts 229°
2026-05-09 11:25 45.61631 152.05346 39232 ft 440 kts 229°
2026-05-09 11:25 45.57463 151.98910 39246 ft 440 kts 229°
2026-05-09 11:26 45.53299 151.92496 39260 ft 440 kts 229°
2026-05-09 11:26 45.49157 151.86130 39272 ft 440 kts 229°
2026-05-09 11:27 45.44976 151.79720 39280 ft 440 kts 229°
2026-05-09 11:27 45.40802 151.73335 39279 ft 440 kts 229°
2026-05-09 11:28 45.36622 151.66956 39292 ft 440 kts 229°
2026-05-09 11:28 45.32473 151.60639 39297 ft 440 kts 229°
2026-05-09 11:29 45.28293 151.54288 39312 ft 440 kts 229°
2026-05-09 11:29 45.24108 151.47946 39315 ft 440 kts 229°
2026-05-09 11:30 45.19924 151.41620 39326 ft 439 kts 229°
2026-05-09 11:30 45.15739 151.35306 39333 ft 439 kts 229°
2026-05-09 11:31 45.11544 151.28992 39339 ft 439 kts 229°
2026-05-09 11:31 45.07380 151.22738 39346 ft 439 kts 229°
2026-05-09 11:32 45.03186 151.16455 39352 ft 438 kts 229°
2026-05-09 11:32 44.98994 151.10188 39358 ft 438 kts 229°
2026-05-09 11:33 44.94806 151.03943 39365 ft 437 kts 229°
2026-05-09 11:33 44.88548 150.94636 39374 ft 437 kts 229°
2026-05-09 11:34 44.84359 150.88423 39383 ft 436 kts 229°
2026-05-09 11:34 44.80200 150.82269 39388 ft 436 kts 229°
2026-05-09 11:35 44.76015 150.76091 39397 ft 436 kts 229°
2026-05-09 11:35 44.71824 150.69917 39400 ft 436 kts 229°
2026-05-09 11:36 44.67630 150.63753 39411 ft 435 kts 229°
2026-05-09 11:36 44.63442 150.57611 39421 ft 435 kts 229°
2026-05-09 11:37 44.59257 150.51487 39426 ft 435 kts 229°
2026-05-09 11:37 44.55066 150.45369 39431 ft 435 kts 229°
2026-05-09 11:38 44.50897 150.39296 39438 ft 434 kts 229°
2026-05-09 11:38 44.46680 150.33167 39446 ft 434 kts 229°
2026-05-09 11:39 44.42511 150.27120 39454 ft 434 kts 229°
2026-05-09 11:40 44.36220 150.18021 39461 ft 434 kts 229°
2026-05-09 11:40 44.32018 150.11959 39466 ft 433 kts 229°
2026-05-09 11:41 44.27819 150.05916 39470 ft 433 kts 229°
2026-05-09 11:41 44.23618 149.99884 39477 ft 433 kts 229°
2026-05-09 11:42 44.19414 149.93860 39481 ft 433 kts 229°
2026-05-09 11:42 44.15212 149.87851 39486 ft 433 kts 229°
2026-05-09 11:43 44.11001 149.81844 39493 ft 433 kts 229°
2026-05-09 11:43 44.06792 149.75852 39496 ft 433 kts 229°
2026-05-09 11:44 44.02609 149.69909 39500 ft 433 kts 229°
2026-05-09 11:44 43.98388 149.63926 39503 ft 433 kts 229°
2026-05-09 11:45 43.94858 149.58933 39502 ft 433 kts 229°
2026-05-09 11:45 43.90662 149.53009 39510 ft 433 kts 229°
2026-05-09 11:46 43.86440 149.47059 39509 ft 433 kts 229°
2026-05-09 11:46 43.82214 149.41119 39518 ft 432 kts 229°
2026-05-09 11:47 43.77983 149.35182 39523 ft 432 kts 229°
2026-05-09 11:47 43.73758 149.29269 39525 ft 432 kts 229°
2026-05-09 11:48 43.69546 149.23385 39528 ft 432 kts 229°
2026-05-09 11:48 43.65317 149.17490 39527 ft 432 kts 229°
2026-05-09 11:49 43.61080 149.11597 39534 ft 432 kts 229°
2026-05-09 11:49 43.56843 149.05716 39540 ft 432 kts 229°
2026-05-09 11:50 43.52601 148.99841 39545 ft 432 kts 229°
2026-05-09 11:50 43.48346 148.93960 39542 ft 432 kts 229°
2026-05-09 11:51 43.44126 148.88140 39544 ft 432 kts 229°
2026-05-09 11:51 43.39869 148.82279 39556 ft 432 kts 229°
2026-05-09 11:52 43.35608 148.76428 39555 ft 433 kts 228°
2026-05-09 11:52 43.31342 148.70582 39560 ft 433 kts 229°
2026-05-09 11:53 43.27078 148.64750 39562 ft 433 kts 228°
2026-05-09 11:53 43.22840 148.58965 39565 ft 432 kts 228°
2026-05-09 11:54 43.18571 148.53151 39569 ft 432 kts 228°
2026-05-09 11:54 43.14275 148.47313 39573 ft 432 kts 228°
2026-05-09 11:55 43.10025 148.41549 39592 ft 432 kts 228°
2026-05-09 11:56 42.97202 148.24229 39595 ft 433 kts 228°
2026-05-09 11:57 42.92913 148.18459 39601 ft 433 kts 228°
2026-05-09 11:57 42.88619 148.12696 39605 ft 433 kts 228°
2026-05-09 11:58 42.84322 148.06940 39608 ft 433 kts 228°
2026-05-09 11:58 42.80018 148.01186 39615 ft 433 kts 228°
2026-05-09 11:59 42.75745 147.95485 39616 ft 433 kts 228°
2026-05-09 11:59 42.71429 147.89740 39619 ft 433 kts 228°
2026-05-09 12:00 42.67111 147.84003 39626 ft 433 kts 228°
2026-05-09 12:00 42.62819 147.78313 39627 ft 433 kts 228°
2026-05-09 12:01 42.58499 147.72595 39633 ft 433 kts 228°
2026-05-09 12:01 42.54186 147.66900 39642 ft 433 kts 228°
2026-05-09 12:02 42.49864 147.61206 39646 ft 432 kts 228°
2026-05-09 12:02 42.45549 147.55531 39651 ft 432 kts 228°
2026-05-09 12:03 42.41235 147.49869 39655 ft 432 kts 228°
2026-05-09 12:03 42.36918 147.44215 39660 ft 432 kts 228°
2026-05-09 12:04 42.32623 147.38588 39663 ft 432 kts 228°
2026-05-09 12:04 42.28304 147.32938 39668 ft 432 kts 228°
2026-05-09 12:05 42.23977 147.27293 39671 ft 432 kts 228°
2026-05-09 12:05 42.19650 147.21660 39677 ft 432 kts 228°
2026-05-09 12:06 42.15345 147.16067 39683 ft 432 kts 228°
2026-05-09 12:06 42.11017 147.10455 39687 ft 432 kts 228°
2026-05-09 12:07 42.06682 147.04845 39693 ft 432 kts 228°
2026-05-09 12:07 42.02350 146.99250 39695 ft 432 kts 228°
2026-05-09 12:08 41.98007 146.93652 39700 ft 432 kts 228°
2026-05-09 12:08 41.93665 146.88068 39702 ft 432 kts 228°
2026-05-09 12:09 41.89317 146.82486 39707 ft 432 kts 229°
2026-05-09 12:09 41.84977 146.76912 39716 ft 432 kts 229°
2026-05-09 12:10 41.76314 146.65815 39721 ft 431 kts 229°
2026-05-09 12:11 41.71974 146.60274 39725 ft 431 kts 229°
2026-05-09 12:11 41.67627 146.54736 39735 ft 431 kts 229°
2026-05-09 12:12 41.63278 146.49206 39741 ft 431 kts 229°
2026-05-09 12:12 41.58921 146.43677 39745 ft 431 kts 229°
2026-05-09 12:13 41.54569 146.38165 39753 ft 431 kts 229°
2026-05-09 12:13 41.50214 146.32660 39757 ft 431 kts 229°
2026-05-09 12:14 41.45889 146.27203 39764 ft 431 kts 229°
2026-05-09 12:14 41.41532 146.21717 39769 ft 430 kts 229°
2026-05-09 12:15 41.37171 146.16237 39776 ft 430 kts 229°
2026-05-09 12:15 41.32810 146.10767 39788 ft 430 kts 229°
2026-05-09 12:16 41.28477 146.05342 39776 ft 430 kts 229°
2026-05-09 12:16 41.24119 145.99898 39789 ft 430 kts 229°
2026-05-09 12:17 41.19759 145.94460 39789 ft 430 kts 229°
2026-05-09 12:17 41.15398 145.89032 39804 ft 430 kts 229°
2026-05-09 12:18 41.11035 145.83611 39801 ft 430 kts 229°
2026-05-09 12:18 41.06668 145.78196 39814 ft 430 kts 229°
2026-05-09 12:19 41.02324 145.72819 39819 ft 430 kts 229°
2026-05-09 12:19 40.97955 145.67424 39825 ft 430 kts 229°
2026-05-09 12:20 40.93580 145.62028 39829 ft 430 kts 229°
2026-05-09 12:20 40.89197 145.56635 39832 ft 430 kts 229°
2026-05-09 12:21 40.84819 145.51258 39834 ft 429 kts 229°
2026-05-09 12:21 40.80437 145.45886 39845 ft 429 kts 229°
2026-05-09 12:22 40.76059 145.40529 39846 ft 429 kts 229°
2026-05-09 12:22 40.71706 145.35213 39854 ft 428 kts 229°
2026-05-09 12:23 40.67324 145.29872 39856 ft 428 kts 229°
2026-05-09 12:23 40.62946 145.24544 39873 ft 428 kts 229°
2026-05-09 12:24 40.58562 145.19220 39876 ft 428 kts 229°
2026-05-09 12:24 40.54182 145.13910 39876 ft 428 kts 229°
2026-05-09 12:25 40.49828 145.08642 39885 ft 428 kts 229°
2026-05-09 12:25 40.45439 145.03342 39888 ft 428 kts 229°
2026-05-09 12:26 40.41457 144.97637 39894 ft 420 kts 239°
2026-05-09 12:26 40.38292 144.91204 39898 ft 420 kts 242°
2026-05-09 12:27 40.35262 144.84644 39903 ft 420 kts 243°
2026-05-09 12:27 40.32237 144.78080 39908 ft 420 kts 242°
2026-05-09 12:28 40.29191 144.71535 39911 ft 420 kts 242°
2026-05-09 12:28 40.26157 144.65056 39917 ft 420 kts 242°
2026-05-09 12:29 40.23100 144.58547 39921 ft 419 kts 242°
2026-05-09 12:29 40.20041 144.52044 39924 ft 419 kts 242°
2026-05-09 12:30 40.16981 144.45552 39929 ft 419 kts 242°
2026-05-09 12:30 40.12413 144.35886 39928 ft 418 kts 242°
2026-05-09 12:31 40.07824 144.26203 39941 ft 417 kts 242°
2026-05-09 12:32 40.04759 144.19754 39941 ft 417 kts 242°
2026-05-09 12:32 40.01692 144.13314 39945 ft 417 kts 242°
2026-05-09 12:33 39.98627 144.06890 39945 ft 417 kts 242°
2026-05-09 12:33 39.95579 144.00516 39949 ft 417 kts 242°
2026-05-09 12:34 39.92506 143.94103 39956 ft 417 kts 242°
2026-05-09 12:34 39.89433 143.87701 39960 ft 417 kts 242°
2026-05-09 12:35 39.86353 143.81300 39964 ft 416 kts 242°
2026-05-09 12:35 39.83276 143.74918 39966 ft 416 kts 242°
2026-05-09 12:36 39.80219 143.68589 39966 ft 416 kts 242°
2026-05-09 12:36 39.77139 143.62227 39967 ft 415 kts 242°
2026-05-09 12:37 39.74062 143.55883 39966 ft 415 kts 242°
2026-05-09 12:37 39.71499 143.50608 39969 ft 414 kts 242°
2026-05-09 12:38 39.68404 143.44250 39971 ft 414 kts 242°
2026-05-09 12:39 39.66129 143.39585 39975 ft 413 kts 242°
2026-05-09 12:39 39.63055 143.33293 39976 ft 413 kts 242°
2026-05-09 12:40 39.59972 143.26995 39981 ft 413 kts 242°
2026-05-09 12:40 39.56890 143.20710 39983 ft 413 kts 242°
2026-05-09 12:41 39.53821 143.14466 39980 ft 413 kts 242°
2026-05-09 12:41 39.50733 143.08194 39983 ft 413 kts 242°
2026-05-09 12:42 39.47640 143.01926 39988 ft 413 kts 242°
2026-05-09 12:42 39.44543 142.95661 39991 ft 413 kts 242°
2026-05-09 12:43 39.41445 142.89406 39990 ft 413 kts 242°
2026-05-09 12:43 39.38343 142.83156 39990 ft 413 kts 242°
2026-05-09 12:44 39.35256 142.76948 39989 ft 413 kts 242°
2026-05-09 12:44 39.32148 142.70711 39993 ft 413 kts 242°
2026-05-09 12:45 39.29042 142.64489 39996 ft 412 kts 242°
2026-05-09 12:45 39.25926 142.58261 39998 ft 412 kts 242°
2026-05-09 12:46 39.22659 142.52169 40002 ft 416 kts 237°
2026-05-09 12:46 39.18965 142.46438 40000 ft 415 kts 236°
2026-05-09 12:47 39.15210 142.40786 40010 ft 415 kts 236°
2026-05-09 12:47 39.11454 142.35157 40016 ft 413 kts 236°
2026-05-09 12:48 39.07724 142.29561 40016 ft 411 kts 236°
2026-05-09 12:48 39.04032 142.24023 40022 ft 409 kts 236°
2026-05-09 12:49 39.00507 142.18740 40024 ft 407 kts 236°
2026-05-09 12:49 38.97373 142.14047 40027 ft 406 kts 236°
2026-05-09 12:50 38.93688 142.08543 40031 ft 405 kts 236°
2026-05-09 12:50 38.90016 142.03068 40033 ft 404 kts 236°
2026-05-09 12:51 38.86350 141.97607 40037 ft 403 kts 236°
2026-05-09 12:51 38.75932 141.82133 40041 ft 401 kts 236°
2026-05-09 12:52 38.61340 141.60618 40052 ft 398 kts 236°
2026-05-09 12:52 38.46832 141.39375 40067 ft 396 kts 236°
2026-05-09 12:53 38.32337 141.18279 40045 ft 394 kts 236°
2026-05-09 12:53 38.17904 140.97351 40022 ft 390 kts 238°
2026-05-09 12:53 38.13506 140.85177 40022 ft 381 kts 261°
2026-05-09 12:54 38.12220 140.71768 40035 ft 384 kts 263°
2026-05-09 12:54 38.09700 140.44791 40100 ft 388 kts 263°
2026-05-09 12:55 38.07052 140.17535 40100 ft 390 kts 262°
2026-05-09 12:55 38.04323 139.90144 40142 ft 392 kts 262°
2026-05-09 12:56 38.01536 139.62792 40135 ft 395 kts 262°
2026-05-09 12:56 37.98630 139.34993 40114 ft 398 kts 262°
2026-05-09 12:57 37.94719 139.07419 40106 ft 399 kts 251°
2026-05-09 12:57 37.85837 138.81739 40128 ft 398 kts 249°
2026-05-09 12:58 37.76894 138.56156 40160 ft 397 kts 249°
2026-05-09 12:58 37.67870 138.30569 40155 ft 399 kts 249°
2026-05-09 12:59 37.58768 138.04959 40158 ft 399 kts 249°
2026-05-09 12:59 37.49683 137.79618 40161 ft 399 kts 249°
2026-05-09 13:00 37.40469 137.54131 40168 ft 400 kts 249°
2026-05-09 13:00 37.31183 137.28660 40164 ft 401 kts 249°
2026-05-09 13:01 37.21830 137.03218 40156 ft 401 kts 248°
2026-05-09 13:01 37.12427 136.77845 40169 ft 401 kts 248°
2026-05-09 13:02 37.02941 136.52465 40180 ft 403 kts 248°
2026-05-09 13:02 36.93352 136.27013 40184 ft 405 kts 248°
2026-05-09 13:03 36.84048 136.02505 40180 ft 406 kts 248°
2026-05-09 13:03 36.74283 135.77004 40176 ft 407 kts 248°
2026-05-09 13:04 36.64436 135.51490 40185 ft 409 kts 248°
2026-05-09 13:04 36.54511 135.25975 40180 ft 410 kts 248°
2026-05-09 13:05 36.44509 135.00474 40183 ft 410 kts 248°
2026-05-09 13:05 36.34432 134.74981 40191 ft 411 kts 248°
2026-05-09 13:06 36.24276 134.49735 40180 ft 414 kts 244°
2026-05-09 13:06 36.12271 134.25448 40187 ft 413 kts 243°
2026-05-09 13:07 36.00200 134.01310 40190 ft 413 kts 243°
2026-05-09 13:07 35.96296 133.88246 40188 ft 406 kts 266°
2026-05-09 13:07 35.95835 133.75258 40189 ft 410 kts 268°
2026-05-09 13:08 35.94968 133.54882 40183 ft 410 kts 265°
2026-05-09 13:08 35.93994 133.26729 40185 ft 410 kts 266°
2026-05-09 13:09 35.92983 132.98803 40183 ft 410 kts 266°
2026-05-09 13:09 35.91899 132.70672 40182 ft 410 kts 266°
2026-05-09 13:10 35.91269 132.55066 40181 ft 410 kts 266°
2026-05-09 13:10 35.90979 132.48033 40177 ft 410 kts 266°
2026-05-09 13:11 35.90900 132.46156 40179 ft 411 kts 266°
2026-05-09 13:11 35.90604 132.39115 40180 ft 411 kts 266°
2026-05-09 13:12 35.90304 132.32075 40179 ft 411 kts 266°
2026-05-09 13:12 35.90000 132.25040 40177 ft 411 kts 266°
2026-05-09 13:13 35.89694 132.18041 40175 ft 411 kts 266°
2026-05-09 13:13 35.89381 132.10990 40177 ft 412 kts 266°
2026-05-09 13:14 35.89064 132.03938 40172 ft 412 kts 266°
2026-05-09 13:16 35.87752 131.75701 40169 ft 412 kts 266°
2026-05-09 13:16 35.87416 131.68679 40173 ft 413 kts 266°
2026-05-09 13:17 35.87073 131.61616 40171 ft 413 kts 266°
2026-05-09 13:17 35.86726 131.54536 40173 ft 413 kts 266°
2026-05-09 13:18 35.86374 131.47466 40171 ft 413 kts 266°
2026-05-09 13:18 35.86019 131.40393 40170 ft 413 kts 266°
2026-05-09 13:19 35.85659 131.33310 40171 ft 413 kts 266°
2026-05-09 13:19 35.85297 131.26284 40170 ft 413 kts 266°
2026-05-09 13:20 35.84928 131.19195 40169 ft 414 kts 266°
2026-05-09 13:20 35.84555 131.12105 40167 ft 414 kts 266°
2026-05-09 13:21 35.84178 131.05022 40167 ft 414 kts 266°
2026-05-09 13:21 35.83796 130.97933 40164 ft 414 kts 266°
2026-05-09 13:22 35.83413 130.90884 40164 ft 415 kts 266°
2026-05-09 13:22 35.83023 130.83790 40164 ft 415 kts 266°
2026-05-09 13:23 35.83171 130.66050 40161 ft 417 kts 276°
2026-05-09 13:24 35.84057 130.58991 40158 ft 417 kts 277°
2026-05-09 13:24 35.84972 130.51961 40162 ft 417 kts 277°
2026-05-09 13:25 35.85878 130.44887 40153 ft 418 kts 277°
2026-05-09 13:26 35.87067 130.35417 40154 ft 418 kts 277°
2026-05-09 13:26 35.87945 130.28374 40156 ft 418 kts 277°
2026-05-09 13:27 35.88796 130.21506 40151 ft 418 kts 277°
2026-05-09 13:27 35.89671 130.14418 40149 ft 418 kts 277°
2026-05-09 13:28 35.90543 130.07318 40149 ft 418 kts 277°
2026-05-09 13:28 35.91411 130.00219 40143 ft 418 kts 277°
2026-05-09 13:29 35.92273 129.93130 40143 ft 418 kts 277°
2026-05-09 13:29 35.93133 129.86025 40146 ft 418 kts 277°
2026-05-09 13:30 35.93986 129.78968 40140 ft 418 kts 277°
2026-05-09 13:30 35.94837 129.71868 40141 ft 418 kts 277°
2026-05-09 13:31 35.95682 129.64754 40141 ft 418 kts 277°
2026-05-09 13:31 35.96522 129.57649 40141 ft 419 kts 277°
2026-05-09 13:32 35.97561 129.50573 40142 ft 420 kts 283°
2026-05-09 13:32 35.99868 129.43920 40137 ft 426 kts 297°
2026-05-09 13:32 36.01493 129.40854 40140 ft 428 kts 300°
2026-05-09 13:33 36.04922 129.34871 40142 ft 429 kts 301°
2026-05-09 13:33 36.08417 129.28905 40142 ft 428 kts 301°
2026-05-09 13:34 36.11898 129.22911 40145 ft 428 kts 301°
2026-05-09 13:34 36.15352 129.16910 40141 ft 428 kts 301°
2026-05-09 13:35 36.18797 129.10901 40137 ft 428 kts 301°
2026-05-09 13:35 36.22217 129.04930 40141 ft 428 kts 301°
2026-05-09 13:36 36.25663 128.98903 40140 ft 428 kts 301°
2026-05-09 13:36 36.29108 128.92869 40137 ft 428 kts 301°
2026-05-09 13:37 36.32546 128.86837 40133 ft 429 kts 301°
2026-05-09 13:37 36.35987 128.80795 40133 ft 429 kts 301°
2026-05-09 13:38 36.39428 128.74731 39957 ft 430 kts 301°
2026-05-09 13:38 36.41146 128.71699 39735 ft 428 kts 301°
2026-05-09 13:38 36.42860 128.68674 39508 ft 428 kts 301°
2026-05-09 13:39 36.44576 128.65641 39284 ft 429 kts 301°
2026-05-09 13:39 36.46290 128.62610 39057 ft 429 kts 301°
2026-05-09 13:39 36.47984 128.59610 38844 ft 429 kts 301°
2026-05-09 13:39 36.49698 128.56574 38579 ft 429 kts 301°
2026-05-09 13:40 36.51410 128.53538 38297 ft 429 kts 301°
2026-05-09 13:40 36.53127 128.50490 38023 ft 430 kts 301°
2026-05-09 13:40 36.54844 128.47441 37685 ft 430 kts 301°
2026-05-09 13:40 36.56553 128.44402 37104 ft 427 kts 301°
2026-05-09 13:41 36.58262 128.41362 36440 ft 428 kts 301°
2026-05-09 13:41 36.59944 128.38365 35766 ft 429 kts 302°
2026-05-09 13:41 36.61651 128.35321 35071 ft 430 kts 302°
2026-05-09 13:41 36.63368 128.32257 34287 ft 433 kts 302°
2026-05-09 13:42 36.65114 128.29168 33403 ft 437 kts 302°
2026-05-09 13:42 36.66878 128.26072 32557 ft 439 kts 303°
2026-05-09 13:42 36.68649 128.22973 31715 ft 440 kts 303°
2026-05-09 13:42 36.70434 128.19847 30829 ft 443 kts 303°
2026-05-09 13:43 36.72223 128.16711 29874 ft 445 kts 303°
2026-05-09 13:43 36.74026 128.13554 28882 ft 448 kts 303°
2026-05-09 13:43 36.75819 128.10403 28238 ft 443 kts 303°
2026-05-09 13:43 36.77589 128.07282 27601 ft 438 kts 303°
2026-05-09 13:44 36.79344 128.04181 26953 ft 435 kts 303°
2026-05-09 13:44 36.81079 128.01113 26298 ft 432 kts 303°
2026-05-09 13:44 36.82806 127.98058 25646 ft 429 kts 303°
2026-05-09 13:44 36.84524 127.95017 25003 ft 427 kts 303°
2026-05-09 13:45 36.86236 127.91991 24360 ft 425 kts 303°
2026-05-09 13:45 36.87933 127.88980 23717 ft 423 kts 304°
2026-05-09 13:45 36.89622 127.85977 22988 ft 421 kts 304°
2026-05-09 13:45 36.91273 127.83036 22358 ft 418 kts 304°
2026-05-09 13:46 36.92933 127.80077 21710 ft 414 kts 304°
2026-05-09 13:46 36.94584 127.77145 21026 ft 412 kts 304°
2026-05-09 13:46 36.96227 127.74222 20278 ft 411 kts 304°
2026-05-09 13:46 36.97866 127.71301 19550 ft 409 kts 304°
2026-05-09 13:47 36.99492 127.68402 18889 ft 406 kts 304°
2026-05-09 13:47 37.01101 127.65533 18376 ft 399 kts 304°
2026-05-09 13:47 37.02657 127.62700 17967 ft 390 kts 303°
2026-05-09 13:47 37.04091 127.59823 17354 ft 389 kts 301°
2026-05-09 13:48 37.05495 127.56926 16690 ft 388 kts 301°
2026-05-09 13:48 37.06886 127.54033 16058 ft 386 kts 301°
2026-05-09 13:48 37.08256 127.51160 15477 ft 382 kts 301°
2026-05-09 13:48 37.09605 127.48313 14946 ft 377 kts 301°
2026-05-09 13:49 37.10919 127.45520 14460 ft 360 kts 301°
2026-05-09 13:49 37.12127 127.42936 14100 ft 335 kts 301°
2026-05-09 13:49 37.13272 127.40465 13715 ft 313 kts 301°
2026-05-09 13:49 37.14319 127.38200 13318 ft 296 kts 301°
2026-05-09 13:50 37.15346 127.35987 12933 ft 291 kts 301°
2026-05-09 13:50 37.16318 127.33784 12544 ft 288 kts 295°
2026-05-09 13:50 37.16705 127.31382 12160 ft 282 kts 270°
2026-05-09 13:50 37.16221 127.28976 11766 ft 290 kts 248°
2026-05-09 13:51 37.15218 127.26796 11399 ft 289 kts 242°
2026-05-09 13:51 37.14128 127.24688 11042 ft 287 kts 241°
2026-05-09 13:51 37.13037 127.22603 10684 ft 284 kts 241°
2026-05-09 13:51 37.11960 127.20532 10342 ft 282 kts 241°
2026-05-09 13:52 37.10904 127.18476 9963 ft 280 kts 242°
2026-05-09 13:52 37.10215 127.16240 9540 ft 273 kts 263°
2026-05-09 13:52 37.10063 127.13883 9116 ft 271 kts 270°
2026-05-09 13:52 37.10035 127.11515 8671 ft 272 kts 271°
2026-05-09 13:53 37.10095 127.09153 8213 ft 272 kts 277°
2026-05-09 13:53 37.10540 127.06857 7806 ft 271 kts 289°
2026-05-09 13:53 37.11208 127.04650 7437 ft 271 kts 291°
2026-05-09 13:53 37.11921 127.02462 7157 ft 271 kts 291°
2026-05-09 13:54 37.12638 127.00303 7024 ft 272 kts 291°
2026-05-09 13:54 37.13372 126.98109 7013 ft 273 kts 291°
2026-05-09 13:54 37.14110 126.95913 7014 ft 273 kts 291°
2026-05-09 13:54 37.14849 126.93716 7012 ft 273 kts 291°
2026-05-09 13:55 37.15589 126.91519 7008 ft 273 kts 291°
2026-05-09 13:55 37.16327 126.89328 7011 ft 273 kts 291°
2026-05-09 13:55 37.17052 126.87180 6999 ft 259 kts 291°
2026-05-09 13:55 37.17719 126.85204 6940 ft 245 kts 291°
2026-05-09 13:56 37.18374 126.83258 6558 ft 239 kts 291°
2026-05-09 13:56 37.19021 126.81332 5937 ft 241 kts 291°
2026-05-09 13:56 37.19671 126.79389 5598 ft 236 kts 291°
2026-05-09 13:56 37.20292 126.77538 5284 ft 225 kts 291°
2026-05-09 13:57 37.20891 126.75756 5038 ft 219 kts 291°
2026-05-09 13:57 37.21478 126.74005 4998 ft 218 kts 291°
2026-05-09 13:57 37.21973 126.72526 4994 ft 218 kts 291°
2026-05-09 13:57 37.22560 126.70773 4995 ft 218 kts 291°
2026-05-09 13:58 37.23147 126.69019 5000 ft 218 kts 291°
2026-05-09 13:58 37.23733 126.67267 5000 ft 218 kts 290°
2026-05-09 13:58 37.24502 126.65627 4998 ft 219 kts 308°
2026-05-09 13:58 37.25597 126.64308 4918 ft 217 kts 320°
2026-05-09 13:59 37.26808 126.63205 4704 ft 212 kts 323°
2026-05-09 13:59 37.27988 126.62153 4392 ft 210 kts 323°
2026-05-09 13:59 37.29158 126.61109 4046 ft 203 kts 323°
2026-05-09 13:59 37.30287 126.60107 3729 ft 194 kts 323°
2026-05-09 14:00 37.31370 126.59146 3466 ft 190 kts 323°
2026-05-09 14:00 37.31734 126.58823 3375 ft 189 kts 323°
2026-05-09 14:00 37.33504 126.57252 2963 ft 186 kts 323°
2026-05-09 14:00 37.34545 126.56329 2732 ft 180 kts 324°
2026-05-09 14:01 37.35539 126.55446 2486 ft 170 kts 324°
2026-05-09 14:01 37.36497 126.54596 2252 ft 167 kts 323°
2026-05-09 14:01 37.37441 126.53757 2029 ft 163 kts 323°
2026-05-09 14:01 37.38342 126.52957 1813 ft 155 kts 323°
2026-05-09 14:02 37.39186 126.52207 1606 ft 145 kts 323°
2026-05-09 14:02 37.40002 126.51482 1435 ft 143 kts 323°
2026-05-09 14:02 37.40813 126.50761 1235 ft 143 kts 323°
2026-05-09 14:02 37.41626 126.50038 1040 ft 143 kts 323°
2026-05-09 14:03 37.42434 126.49319 841 ft 142 kts 324°
2026-05-09 14:03 37.43239 126.48602 650 ft 141 kts 324°
2026-05-09 14:03 37.44030 126.47887 434 ft 139 kts 325°
2026-05-09 14:03 37.44820 126.47187 249 ft 138 kts 326°
2026-05-09 14:04 37.45603 126.46500 96 ft 138 kts 326°
2026-05-09 14:04 37.46359 126.45831 40 ft 120 kts 324°
2026-05-09 14:04 37.46841 126.45392 39 ft 54 kts 317°
2026-05-09 14:04 37.46985 126.45148 39 ft 18 kts 295°
2026-05-09 14:05 37.47042 126.44994 39 ft 21 kts 295°
2026-05-09 14:05 37.47130 126.44874 39 ft 18 kts 324°
2026-05-09 14:05 37.47233 126.44784 39 ft 19 kts 323°
2026-05-09 14:05 37.47344 126.44684 39 ft 19 kts 324°
2026-05-09 14:06 37.47364 126.44589 39 ft 8 kts 239°
2026-05-09 14:06 37.47347 126.44556 39 ft 0 kts 234°
2026-05-09 14:07 37.47320 126.44508 39 ft 14 kts 235°
2026-05-09 14:07 37.47252 126.44386 39 ft 20 kts 234°
2026-05-09 14:07 37.47187 126.44272 39 ft 14 kts 234°
2026-05-09 14:07 37.47153 126.44212 36 ft 5 kts 234°
2026-05-09 14:08 37.47148 126.44203 37 ft 0 kts 234°
2026-05-09 14:08 37.47146 126.44200 37 ft 3 kts 234°
2026-05-09 14:08 37.47115 126.44144 39 ft 13 kts 234°
2026-05-09 14:08 37.47047 126.44025 39 ft 19 kts 234°
2026-05-09 14:09 37.47046 126.43934 39 ft 7 kts 308°
2026-05-09 14:09 37.47104 126.43875 39 ft 9 kts 305°
2026-05-09 14:09 37.47101 126.43852 39 ft 1 kts 231°
2026-05-09 14:09 37.47079 126.43822 39 ft 5 kts 233°
2026-05-09 14:10 37.47059 126.43785 39 ft 2 kts 236°
2026-05-09 14:10 37.47053 126.43772 39 ft 0 kts 237°
2026-05-09 14:16 37.43689 126.48195 537 ft 141 kts 324°